Time,TemperatureF,DewpointF,PressureIn,WindDirection,WindDirectionDegrees,WindSpeedMPH,WindSpeedGustMPH,Humidity,HourlyPrecipIn,Conditions,Clouds,dailyrainin,SoftwareType,DateUTC
2013-01-12 00:00:00,50.4,47.9,29.75,South,171,3.0,5.0,91,0.00,,---,0.00,VWS V14.00,2013-01-12 05:00:00,
2013-01-12 00:02:00,50.3,48.1,29.75,South,171,3.0,6.0,92,0.00,,---,0.00,VWS V14.00,2013-01-12 05:02:00,
2013-01-12 00:05:00,50.3,48.1,29.74,South,174,4.0,7.0,92,0.00,,---,0.00,VWS V14.00,2013-01-12 05:05:00,
2013-01-12 00:06:00,50.3,48.1,29.74,South,174,4.0,7.0,92,0.00,,---,0.00,VWS V14.00,2013-01-12 05:06:00,
2013-01-12 00:08:00,50.3,48.1,29.74,South,186,6.0,8.0,92,0.00,,---,0.00,VWS V14.00,2013-01-12 05:08:00,
2013-01-12 00:11:00,50.1,47.9,29.74,South,171,5.0,8.0,92,0.00,,---,0.00,VWS V14.00,2013-01-12 05:11:00,
2013-01-12 00:14:00,50.1,47.9,29.73,South,175,5.0,8.0,92,0.00,,---,0.00,VWS V14.00,2013-01-12 05:14:00,
2013-01-12 00:17:00,50.1,47.9,29.73,South,173,5.0,11.0,92,0.00,,---,0.00,VWS V14.00,2013-01-12 05:17:00,
2013-01-12 00:19:00,50.1,47.9,29.73,South,180,4.0,11.0,92,0.00,,---,0.00,VWS V14.00,2013-01-12 05:19:00,
2013-01-12 00:20:00,50.1,47.9,29.73,South,173,3.0,11.0,92,0.00,,---,0.00,VWS V14.00,2013-01-12 05:20:00,
2013-01-12 00:21:00,50.1,47.9,29.73,South,180,6.0,11.0,92,0.00,,---,0.00,VWS V14.00,2013-01-12 05:21:00,
2013-01-12 00:24:00,50.0,48.1,29.73,South,176,6.0,11.0,93,0.00,,---,0.00,VWS V14.00,2013-01-12 05:24:00,
2013-01-12 00:26:00,49.8,47.9,29.74,South,176,3.0,11.0,93,0.00,,---,0.00,VWS V14.00,2013-01-12 05:26:00,
2013-01-12 00:28:00,49.7,47.8,29.73,South,177,5.0,11.0,93,0.00,,---,0.00,VWS V14.00,2013-01-12 05:28:00,
2013-01-12 00:29:00,49.7,47.5,29.73,South,180,7.0,7.0,92,0.00,,---,0.00,VWS V14.00,2013-01-12 05:29:00,
2013-01-12 00:30:00,49.7,47.5,29.73,South,180,3.0,9.0,92,0.00,,---,0.00,VWS V14.00,2013-01-12 05:30:00,
2013-01-12 00:32:00,49.5,47.3,29.73,South,177,6.0,9.0,92,0.00,,---,0.00,VWS V14.00,2013-01-12 05:32:00,
2013-01-12 00:34:00,49.3,47.4,29.73,South,178,6.0,9.0,93,0.00,,---,0.00,VWS V14.00,2013-01-12 05:34:00,
2013-01-12 00:35:00,49.2,47.3,29.74,South,176,5.0,9.0,93,0.00,,---,0.00,VWS V14.00,2013-01-12 05:35:00,
2013-01-12 00:37:00,49.2,47.3,29.74,South,177,4.0,9.0,93,0.00,,---,0.00,VWS V14.00,2013-01-12 05:37:00,
2013-01-12 00:39:00,49.2,47.3,29.74,South,178,4.0,9.0,93,0.00,,---,0.00,VWS V14.00,2013-01-12 05:39:00,
2013-01-12 00:40:00,49.1,47.2,29.74,South,175,2.0,9.0,93,0.00,,---,0.00,VWS V14.00,2013-01-12 05:40:00,
2013-01-12 00:41:00,49.0,47.1,29.74,South,175,3.0,9.0,93,0.00,,---,0.00,VWS V14.00,2013-01-12 05:41:00,
2013-01-12 00:42:00,48.9,47.0,29.74,South,175,2.0,9.0,93,0.00,,---,0.00,VWS V14.00,2013-01-12 05:42:00,
2013-01-12 00:44:00,48.8,46.9,29.74,South,175,1.0,9.0,93,0.00,,---,0.00,VWS V14.00,2013-01-12 05:44:00,
2013-01-12 00:45:00,48.8,46.9,29.74,South,175,2.0,9.0,93,0.00,,---,0.00,VWS V14.00,2013-01-12 05:45:00,
2013-01-12 00:47:00,48.8,46.9,29.74,South,174,3.0,9.0,93,0.00,,---,0.00,VWS V14.00,2013-01-12 05:47:00,
2013-01-12 00:48:00,48.8,46.9,29.74,South,174,3.0,9.0,93,0.00,,---,0.00,VWS V14.00,2013-01-12 05:48:00,
2013-01-12 00:50:00,48.9,47.0,29.74,South,174,2.0,9.0,93,0.00,,---,0.00,VWS V14.00,2013-01-12 05:50:00,
2013-01-12 00:53:00,48.9,47.0,29.74,South,175,3.0,9.0,93,0.00,,---,0.00,VWS V14.00,2013-01-12 05:53:00,
2013-01-12 00:54:00,49.0,47.3,29.74,South,176,4.0,9.0,94,0.00,,---,0.00,VWS V14.00,2013-01-12 05:54:00,
2013-01-12 00:55:00,49.0,47.3,29.74,South,175,5.0,9.0,94,0.00,,---,0.00,VWS V14.00,2013-01-12 05:55:00,
2013-01-12 00:57:00,49.0,47.3,29.74,South,180,4.0,9.0,94,0.00,,---,0.00,VWS V14.00,2013-01-12 05:57:00,
2013-01-12 00:59:00,49.1,47.5,29.73,South,179,3.0,5.0,94,0.00,,---,0.00,VWS V14.00,2013-01-12 05:59:00,
2013-01-12 01:00:00,49.1,47.5,29.73,South,179,2.0,5.0,94,0.00,,---,0.00,VWS V14.00,2013-01-12 06:00:00,
2013-01-12 01:04:00,48.9,47.2,29.74,South,177,5.0,6.0,94,0.00,,---,0.00,VWS V14.00,2013-01-12 06:04:00,
2013-01-12 01:05:00,48.8,46.9,29.74,South,173,4.0,6.0,93,0.00,,---,0.00,VWS V14.00,2013-01-12 06:05:00,
2013-01-12 01:06:00,48.8,46.9,29.74,South,172,2.0,6.0,93,0.00,,---,0.00,VWS V14.00,2013-01-12 06:06:00,
2013-01-12 01:07:00,48.7,46.8,29.74,South,173,2.0,6.0,93,0.00,,---,0.00,VWS V14.00,2013-01-12 06:07:00,
2013-01-12 01:10:00,48.7,46.8,29.74,South,173,1.0,6.0,93,0.00,,---,0.00,VWS V14.00,2013-01-12 06:10:00,
2013-01-12 01:11:00,48.7,46.8,29.74,South,173,1.0,6.0,93,0.00,,---,0.00,VWS V14.00,2013-01-12 06:11:00,
2013-01-12 01:13:00,48.7,47.0,29.74,South,173,2.0,6.0,94,0.00,,---,0.00,VWS V14.00,2013-01-12 06:13:00,
2013-01-12 01:14:00,48.7,47.0,29.74,South,173,2.0,6.0,94,0.00,,---,0.00,VWS V14.00,2013-01-12 06:14:00,
2013-01-12 01:18:00,48.8,47.2,29.74,South,173,2.0,6.0,94,0.00,,---,0.00,VWS V14.00,2013-01-12 06:18:00,
2013-01-12 01:20:00,48.8,47.2,29.74,South,175,5.0,6.0,94,0.00,,---,0.00,VWS V14.00,2013-01-12 06:20:00,
2013-01-12 01:23:00,48.9,47.2,29.74,South,175,4.0,9.0,94,0.00,,---,0.00,VWS V14.00,2013-01-12 06:23:00,
2013-01-12 01:24:00,48.8,47.2,29.74,South,175,7.0,9.0,94,0.00,,---,0.00,VWS V14.00,2013-01-12 06:24:00,
2013-01-12 01:25:00,48.8,47.2,29.74,South,175,5.0,9.0,94,0.00,,---,0.00,VWS V14.00,2013-01-12 06:25:00,
2013-01-12 01:28:00,48.8,47.2,29.74,South,174,4.0,9.0,94,0.00,,---,0.00,VWS V14.00,2013-01-12 06:28:00,
2013-01-12 01:30:00,48.8,47.2,29.74,South,173,3.0,6.0,94,0.00,,---,0.00,VWS V14.00,2013-01-12 06:30:00,
2013-01-12 01:34:00,48.7,47.0,29.75,South,173,4.0,6.0,94,0.00,,---,0.00,VWS V14.00,2013-01-12 06:34:00,
2013-01-12 01:35:00,48.7,47.0,29.75,South,173,2.0,6.0,94,0.00,,---,0.00,VWS V14.00,2013-01-12 06:35:00,
2013-01-12 01:36:00,48.7,47.0,29.75,South,173,5.0,6.0,94,0.00,,---,0.00,VWS V14.00,2013-01-12 06:36:00,
2013-01-12 01:40:00,48.8,47.2,29.75,South,176,4.0,9.0,94,0.00,,---,0.00,VWS V14.00,2013-01-12 06:40:00,
2013-01-12 01:41:00,48.8,47.2,29.75,South,176,3.0,9.0,94,0.00,,---,0.00,VWS V14.00,2013-01-12 06:41:00,
2013-01-12 01:42:00,48.8,47.2,29.75,South,176,2.0,9.0,94,0.00,,---,0.00,VWS V14.00,2013-01-12 06:42:00,
2013-01-12 01:46:00,48.8,47.2,29.75,South,176,4.0,9.0,94,0.00,,---,0.00,VWS V14.00,2013-01-12 06:46:00,
2013-01-12 01:47:00,48.7,47.0,29.75,South,176,4.0,9.0,94,0.00,,---,0.00,VWS V14.00,2013-01-12 06:47:00,
2013-01-12 01:51:00,48.7,47.0,29.76,South,176,3.0,9.0,94,0.00,,---,0.00,VWS V14.00,2013-01-12 06:51:00,
2013-01-12 01:52:00,48.7,47.0,29.76,South,176,5.0,9.0,94,0.00,,---,0.00,VWS V14.00,2013-01-12 06:52:00,
2013-01-12 01:53:00,48.7,47.0,29.76,South,176,1.0,9.0,94,0.00,,---,0.00,VWS V14.00,2013-01-12 06:53:00,
2013-01-12 01:54:00,48.7,47.0,29.76,South,176,4.0,9.0,94,0.00,,---,0.00,VWS V14.00,2013-01-12 06:54:00,
2013-01-12 01:56:00,48.7,47.0,29.76,South,176,2.0,9.0,94,0.00,,---,0.00,VWS V14.00,2013-01-12 06:56:00,
2013-01-12 01:58:00,48.7,47.0,29.76,South,176,3.0,9.0,94,0.00,,---,0.00,VWS V14.00,2013-01-12 06:58:00,
2013-01-12 01:59:00,48.7,47.0,29.76,South,177,1.0,3.0,94,0.00,,---,0.00,VWS V14.00,2013-01-12 06:59:00,
2013-01-12 02:03:00,48.6,47.0,29.76,South,177,3.0,5.0,94,0.00,,---,0.00,VWS V14.00,2013-01-12 07:03:00,
2013-01-12 02:04:00,48.6,47.0,29.76,South,177,3.0,6.0,94,0.00,,---,0.00,VWS V14.00,2013-01-12 07:04:00,
2013-01-12 02:05:00,48.7,47.0,29.76,South,176,5.0,9.0,94,0.00,,---,0.00,VWS V14.00,2013-01-12 07:05:00,
2013-01-12 02:10:00,48.7,47.0,29.76,South,177,3.0,9.0,94,0.00,,---,0.00,VWS V14.00,2013-01-12 07:10:00,
2013-01-12 02:11:00,48.6,47.0,29.76,South,177,2.0,9.0,94,0.00,,---,0.00,VWS V14.00,2013-01-12 07:11:00,
2013-01-12 02:13:00,48.6,47.0,29.76,South,176,3.0,9.0,94,0.00,,---,0.00,VWS V14.00,2013-01-12 07:13:00,
2013-01-12 02:15:00,48.6,47.0,29.76,South,178,6.0,9.0,94,0.00,,---,0.00,VWS V14.00,2013-01-12 07:15:00,
2013-01-12 02:16:00,48.6,47.0,29.76,South,178,2.0,9.0,94,0.00,,---,0.00,VWS V14.00,2013-01-12 07:16:00,
2013-01-12 02:19:00,48.6,47.0,29.76,South,178,5.0,9.0,94,0.00,,---,0.00,VWS V14.00,2013-01-12 07:19:00,
2013-01-12 02:20:00,48.6,47.0,29.76,South,178,4.0,9.0,94,0.00,,---,0.00,VWS V14.00,2013-01-12 07:20:00,
2013-01-12 02:22:00,48.6,47.0,29.76,South,178,2.0,9.0,94,0.00,,---,0.00,VWS V14.00,2013-01-12 07:22:00,
2013-01-12 02:25:00,48.6,47.0,29.76,South,179,5.0,9.0,94,0.00,,---,0.00,VWS V14.00,2013-01-12 07:25:00,
2013-01-12 02:27:00,48.5,46.9,29.76,South,180,1.0,9.0,94,0.00,,---,0.00,VWS V14.00,2013-01-12 07:27:00,
2013-01-12 02:28:00,48.5,46.9,29.76,South,179,3.0,3.0,94,0.00,,---,0.00,VWS V14.00,2013-01-12 07:28:00,
2013-01-12 02:29:00,48.4,46.8,29.76,South,180,5.0,6.0,94,0.00,,---,0.00,VWS V14.00,2013-01-12 07:29:00,
2013-01-12 02:30:00,48.4,46.8,29.76,South,179,3.0,6.0,94,0.00,,---,0.00,VWS V14.00,2013-01-12 07:30:00,
2013-01-12 02:32:00,48.4,46.8,29.77,South,179,6.0,6.0,94,0.00,,---,0.00,VWS V14.00,2013-01-12 07:32:00,
2013-01-12 02:33:00,48.4,46.8,29.77,South,180,2.0,6.0,94,0.00,,---,0.00,VWS V14.00,2013-01-12 07:33:00,
2013-01-12 02:35:00,48.3,46.7,29.77,South,180,3.0,6.0,94,0.00,,---,0.00,VWS V14.00,2013-01-12 07:35:00,
2013-01-12 02:36:00,48.4,46.8,29.77,South,180,4.0,6.0,94,0.00,,---,0.00,VWS V14.00,2013-01-12 07:36:00,
2013-01-12 02:38:00,48.3,46.7,29.77,South,180,3.0,6.0,94,0.00,,---,0.00,VWS V14.00,2013-01-12 07:38:00,
2013-01-12 02:39:00,48.4,46.8,29.76,South,180,2.0,6.0,94,0.00,,---,0.00,VWS V14.00,2013-01-12 07:39:00,
2013-01-12 02:40:00,48.4,46.8,29.76,South,179,2.0,6.0,94,0.00,,---,0.00,VWS V14.00,2013-01-12 07:40:00,
2013-01-12 02:41:00,48.4,46.8,29.76,South,180,4.0,6.0,94,0.00,,---,0.00,VWS V14.00,2013-01-12 07:41:00,
2013-01-12 02:43:00,48.4,47.0,29.76,South,179,3.0,6.0,95,0.00,,---,0.00,VWS V14.00,2013-01-12 07:43:00,
2013-01-12 02:46:00,48.4,46.8,29.77,South,179,3.0,6.0,94,0.00,,---,0.00,VWS V14.00,2013-01-12 07:46:00,
2013-01-12 02:48:00,48.3,46.7,29.77,South,179,5.0,6.0,94,0.00,,---,0.00,VWS V14.00,2013-01-12 07:48:00,
2013-01-12 02:49:00,48.3,46.7,29.77,South,180,1.0,6.0,94,0.00,,---,0.00,VWS V14.00,2013-01-12 07:49:00,
2013-01-12 02:51:00,48.3,46.9,29.77,South,180,5.0,7.0,95,0.00,,---,0.00,VWS V14.00,2013-01-12 07:51:00,
2013-01-12 02:53:00,48.4,47.0,29.77,South,180,1.0,7.0,95,0.00,,---,0.00,VWS V14.00,2013-01-12 07:53:00,
2013-01-12 02:54:00,48.4,47.0,29.77,South,180,5.0,7.0,95,0.00,,---,0.00,VWS V14.00,2013-01-12 07:54:00,
2013-01-12 02:56:00,48.5,47.1,29.77,South,179,4.0,7.0,95,0.00,,---,0.00,VWS V14.00,2013-01-12 07:56:00,
2013-01-12 02:58:00,48.5,47.1,29.76,South,180,4.0,7.0,95,0.00,,---,0.00,VWS V14.00,2013-01-12 07:58:00,
2013-01-12 03:01:00,48.5,47.1,29.77,South,180,2.0,6.0,95,0.00,,---,0.00,VWS V14.00,2013-01-12 08:01:00,
2013-01-12 03:03:00,48.6,47.2,29.76,South,179,2.0,6.0,95,0.00,,---,0.00,VWS V14.00,2013-01-12 08:03:00,
2013-01-12 03:07:00,48.5,47.1,29.76,South,180,1.0,6.0,95,0.00,,---,0.00,VWS V14.00,2013-01-12 08:07:00,
2013-01-12 03:09:00,48.6,47.2,29.76,South,180,2.0,6.0,95,0.00,,---,0.00,VWS V14.00,2013-01-12 08:09:00,
2013-01-12 03:12:00,48.6,47.2,29.76,South,180,3.0,6.0,95,0.00,,---,0.00,VWS V14.00,2013-01-12 08:12:00,
2013-01-12 03:13:00,48.6,47.2,29.76,South,180,2.0,6.0,95,0.00,,---,0.00,VWS V14.00,2013-01-12 08:13:00,
2013-01-12 03:15:00,48.7,47.3,29.76,South,180,2.0,6.0,95,0.00,,---,0.00,VWS V14.00,2013-01-12 08:15:00,
2013-01-12 03:18:00,48.7,47.3,29.77,South,180,1.0,6.0,95,0.00,,---,0.00,VWS V14.00,2013-01-12 08:18:00,
2013-01-12 03:19:00,48.7,47.3,29.77,South,180,2.0,6.0,95,0.00,,---,0.00,VWS V14.00,2013-01-12 08:19:00,
2013-01-12 03:21:00,48.7,47.3,29.77,South,180,5.0,6.0,95,0.00,,---,0.00,VWS V14.00,2013-01-12 08:21:00,
2013-01-12 03:22:00,48.7,47.3,29.77,South,180,1.0,6.0,95,0.00,,---,0.00,VWS V14.00,2013-01-12 08:22:00,
2013-01-12 03:25:00,48.8,47.4,29.77,South,179,1.0,6.0,95,0.00,,---,0.00,VWS V14.00,2013-01-12 08:25:00,
2013-01-12 03:27:00,48.8,47.4,29.77,South,180,4.0,6.0,95,0.00,,---,0.00,VWS V14.00,2013-01-12 08:27:00,
2013-01-12 03:28:00,48.8,47.4,29.76,South,180,3.0,6.0,95,0.00,,---,0.00,VWS V14.00,2013-01-12 08:28:00,
2013-01-12 03:30:00,49.0,47.6,29.76,South,180,1.0,3.0,95,0.00,,---,0.00,VWS V14.00,2013-01-12 08:30:00,
2013-01-12 03:33:00,49.0,47.3,29.76,South,182,3.0,6.0,94,0.00,,---,0.00,VWS V14.00,2013-01-12 08:33:00,
2013-01-12 03:34:00,49.0,47.3,29.76,South,182,1.0,6.0,94,0.00,,---,0.00,VWS V14.00,2013-01-12 08:34:00,
2013-01-12 03:35:00,49.1,47.5,29.76,South,182,2.0,6.0,94,0.00,,---,0.00,VWS V14.00,2013-01-12 08:35:00,
2013-01-12 03:38:00,49.2,47.5,29.76,South,182,2.0,6.0,94,0.00,,---,0.00,VWS V14.00,2013-01-12 08:38:00,
2013-01-12 03:40:00,49.3,47.7,29.76,South,182,2.0,6.0,94,0.00,,---,0.00,VWS V14.00,2013-01-12 08:40:00,
2013-01-12 03:44:00,49.2,47.5,29.75,South,182,3.0,6.0,94,0.00,,---,0.00,VWS V14.00,2013-01-12 08:44:00,
2013-01-12 03:46:00,49.2,47.5,29.76,South,182,1.0,6.0,94,0.00,,---,0.00,VWS V14.00,2013-01-12 08:46:00,
2013-01-12 03:47:00,49.3,47.7,29.76,South,182,1.0,6.0,94,0.00,,---,0.00,VWS V14.00,2013-01-12 08:47:00,
2013-01-12 03:49:00,49.2,47.5,29.76,South,182,2.0,6.0,94,0.00,,---,0.00,VWS V14.00,2013-01-12 08:49:00,
2013-01-12 03:50:00,49.3,47.7,29.76,South,182,1.0,6.0,94,0.00,,---,0.00,VWS V14.00,2013-01-12 08:50:00,
2013-01-12 03:52:00,49.3,47.7,29.76,South,182,2.0,6.0,94,0.00,,---,0.00,VWS V14.00,2013-01-12 08:52:00,
2013-01-12 03:56:00,49.5,47.8,29.76,South,190,2.0,6.0,94,0.00,,---,0.00,VWS V14.00,2013-01-12 08:56:00,
2013-01-12 03:58:00,49.6,48.0,29.76,SW,217,6.0,6.0,94,0.00,,---,0.00,VWS V14.00,2013-01-12 08:58:00,
2013-01-12 03:59:00,49.7,48.0,29.76,SW,219,0.0,1.0,94,0.00,,---,0.00,VWS V14.00,2013-01-12 08:59:00,
2013-01-12 04:02:00,49.9,48.0,29.76,SW,214,1.0,5.0,93,0.00,,---,0.00,VWS V14.00,2013-01-12 09:02:00,
2013-01-12 04:03:00,49.9,48.0,29.76,SW,215,2.0,5.0,93,0.00,,---,0.00,VWS V14.00,2013-01-12 09:03:00,
2013-01-12 04:04:00,49.9,48.0,29.76,SW,233,6.0,11.0,93,0.00,,---,0.00,VWS V14.00,2013-01-12 09:04:00,
2013-01-12 04:08:00,50.2,48.3,29.76,SW,219,0.0,11.0,93,0.00,,---,0.00,VWS V14.00,2013-01-12 09:08:00,
2013-01-12 04:09:00,50.3,48.4,29.76,SW,217,3.0,11.0,93,0.00,,---,0.00,VWS V14.00,2013-01-12 09:09:00,
2013-01-12 04:10:00,50.4,48.5,29.76,SSW,213,3.0,11.0,93,0.00,,---,0.00,VWS V14.00,2013-01-12 09:10:00,
2013-01-12 04:13:00,50.5,48.3,29.76,WSW,248,2.0,11.0,92,0.00,,---,0.00,VWS V14.00,2013-01-12 09:13:00,
2013-01-12 04:14:00,50.5,48.3,29.76,WSW,248,2.0,11.0,92,0.00,,---,0.00,VWS V14.00,2013-01-12 09:14:00,
2013-01-12 04:18:00,50.7,48.5,29.75,SW,233,4.0,14.0,92,0.00,,---,0.00,VWS V14.00,2013-01-12 09:18:00,
2013-01-12 04:19:00,50.8,48.6,29.75,SW,224,4.0,14.0,92,0.00,,---,0.00,VWS V14.00,2013-01-12 09:19:00,
2013-01-12 04:20:00,50.8,48.3,29.75,WSW,250,1.0,14.0,91,0.00,,---,0.00,VWS V14.00,2013-01-12 09:20:00,
2013-01-12 04:25:00,50.9,48.4,29.75,South,175,2.0,14.0,91,0.00,,---,0.00,VWS V14.00,2013-01-12 09:25:00,
2013-01-12 04:27:00,51.0,48.2,29.75,SW,228,5.0,14.0,90,0.00,,---,0.00,VWS V14.00,2013-01-12 09:27:00,
2013-01-12 04:30:00,51.0,48.2,29.75,SSW,210,1.0,9.0,90,0.00,,---,0.00,VWS V14.00,2013-01-12 09:30:00,
2013-01-12 04:31:00,51.0,48.2,29.75,SSW,197,2.0,9.0,90,0.00,,---,0.00,VWS V14.00,2013-01-12 09:31:00,
2013-01-12 04:32:00,51.0,48.2,29.75,South,186,0.0,9.0,90,0.00,,---,0.00,VWS V14.00,2013-01-12 09:32:00,
2013-01-12 04:34:00,51.1,48.3,29.75,South,188,2.0,9.0,90,0.00,,---,0.00,VWS V14.00,2013-01-12 09:34:00,
2013-01-12 04:36:00,51.1,48.0,29.75,SSW,210,3.0,9.0,89,0.00,,---,0.00,VWS V14.00,2013-01-12 09:36:00,
2013-01-12 04:37:00,51.1,48.0,29.75,SW,233,4.0,9.0,89,0.00,,---,0.00,VWS V14.00,2013-01-12 09:37:00,
2013-01-12 04:39:00,51.1,48.0,29.76,SW,218,4.0,9.0,89,0.00,,---,0.00,VWS V14.00,2013-01-12 09:39:00,
2013-01-12 04:40:00,51.2,48.1,29.76,SW,218,3.0,9.0,89,0.00,,---,0.00,VWS V14.00,2013-01-12 09:40:00,
2013-01-12 04:42:00,51.2,48.1,29.76,WSW,253,10.0,10.0,89,0.00,,---,0.00,VWS V14.00,2013-01-12 09:42:00,
2013-01-12 04:43:00,51.2,48.1,29.76,WSW,242,6.0,13.0,89,0.00,,---,0.00,VWS V14.00,2013-01-12 09:43:00,
2013-01-12 04:44:00,51.2,48.1,29.76,WSW,242,4.0,13.0,89,0.00,,---,0.00,VWS V14.00,2013-01-12 09:44:00,
2013-01-12 04:47:00,51.2,47.8,29.75,WSW,238,4.0,13.0,88,0.00,,---,0.00,VWS V14.00,2013-01-12 09:47:00,
2013-01-12 04:48:00,51.2,47.8,29.74,WSW,238,2.0,13.0,88,0.00,,---,0.00,VWS V14.00,2013-01-12 09:48:00,
2013-01-12 04:49:00,51.2,47.8,29.74,WSW,237,0.0,13.0,88,0.00,,---,0.00,VWS V14.00,2013-01-12 09:49:00,
2013-01-12 04:51:00,51.2,47.8,29.75,SW,223,2.0,13.0,88,0.00,,---,0.00,VWS V14.00,2013-01-12 09:51:00,
2013-01-12 04:53:00,51.2,47.8,29.75,SW,230,2.0,13.0,88,0.00,,---,0.00,VWS V14.00,2013-01-12 09:53:00,
2013-01-12 04:54:00,51.2,47.8,29.75,SW,215,4.0,13.0,88,0.00,,---,0.00,VWS V14.00,2013-01-12 09:54:00,
2013-01-12 04:55:00,51.2,47.8,29.75,WSW,249,3.0,13.0,88,0.00,,---,0.00,VWS V14.00,2013-01-12 09:55:00,
2013-01-12 04:56:00,51.2,47.8,29.75,WSW,237,2.0,13.0,88,0.00,,---,0.00,VWS V14.00,2013-01-12 09:56:00,
2013-01-12 04:59:00,51.3,47.9,29.75,SSW,203,2.0,7.0,88,0.00,,---,0.00,VWS V14.00,2013-01-12 09:59:00,
2013-01-12 05:00:00,51.3,47.9,29.75,SSW,203,2.0,7.0,88,0.00,,---,0.00,VWS V14.00,2013-01-12 10:00:00,
2013-01-12 05:01:00,51.4,48.0,29.75,SW,215,4.0,7.0,88,0.00,,---,0.00,VWS V14.00,2013-01-12 10:01:00,
2013-01-12 05:04:00,51.4,47.7,29.75,WSW,241,6.0,8.0,87,0.00,,---,0.00,VWS V14.00,2013-01-12 10:04:00,
2013-01-12 05:06:00,51.3,47.6,29.75,WSW,240,2.0,8.0,87,0.00,,---,0.00,VWS V14.00,2013-01-12 10:06:00,
2013-01-12 05:08:00,51.4,47.7,29.75,SSW,198,4.0,8.0,87,0.00,,---,0.00,VWS V14.00,2013-01-12 10:08:00,
2013-01-12 05:10:00,51.4,47.7,29.75,SSW,213,1.0,8.0,87,0.00,,---,0.00,VWS V14.00,2013-01-12 10:10:00,
2013-01-12 05:13:00,51.4,47.7,29.74,SSW,212,2.0,8.0,87,0.00,,---,0.00,VWS V14.00,2013-01-12 10:13:00,
2013-01-12 05:15:00,51.5,47.8,29.74,SSW,212,1.0,8.0,87,0.00,,---,0.00,VWS V14.00,2013-01-12 10:15:00,
2013-01-12 05:16:00,51.4,47.7,29.74,SSW,211,2.0,8.0,87,0.00,,---,0.00,VWS V14.00,2013-01-12 10:16:00,
2013-01-12 05:19:00,51.5,47.8,29.74,South,183,0.0,8.0,87,0.00,,---,0.00,VWS V14.00,2013-01-12 10:19:00,
2013-01-12 05:20:00,51.5,47.8,29.74,South,183,4.0,8.0,87,0.00,,---,0.00,VWS V14.00,2013-01-12 10:20:00,
2013-01-12 05:21:00,51.5,47.8,29.74,South,188,4.0,8.0,87,0.00,,---,0.00,VWS V14.00,2013-01-12 10:21:00,
2013-01-12 05:22:00,51.5,47.8,29.74,South,188,3.0,8.0,87,0.00,,---,0.00,VWS V14.00,2013-01-12 10:22:00,
2013-01-12 05:24:00,51.5,47.8,29.74,SSW,198,1.0,9.0,87,0.00,,---,0.00,VWS V14.00,2013-01-12 10:24:00,
2013-01-12 05:27:00,51.5,47.8,29.75,SW,214,4.0,10.0,87,0.00,,---,0.00,VWS V14.00,2013-01-12 10:27:00,
2013-01-12 05:28:00,51.4,47.7,29.75,SSW,211,3.0,10.0,87,0.00,,---,0.00,VWS V14.00,2013-01-12 10:28:00,
2013-01-12 05:32:00,51.4,47.7,29.76,SW,223,5.0,10.0,87,0.00,,---,0.00,VWS V14.00,2013-01-12 10:32:00,
2013-01-12 05:33:00,51.4,47.7,29.76,SW,226,1.0,10.0,87,0.00,,---,0.00,VWS V14.00,2013-01-12 10:33:00,
2013-01-12 05:34:00,51.4,47.7,29.76,SSW,212,2.0,10.0,87,0.00,,---,0.00,VWS V14.00,2013-01-12 10:34:00,
2013-01-12 05:37:00,51.3,47.6,29.75,SSW,211,5.0,10.0,87,0.00,,---,0.00,VWS V14.00,2013-01-12 10:37:00,
2013-01-12 05:39:00,51.3,47.6,29.75,SSW,213,1.0,10.0,87,0.00,,---,0.00,VWS V14.00,2013-01-12 10:39:00,
2013-01-12 05:43:00,51.4,47.7,29.75,SSW,213,2.0,10.0,87,0.00,,---,0.00,VWS V14.00,2013-01-12 10:43:00,
2013-01-12 05:44:00,51.4,47.7,29.75,SSW,206,6.0,10.0,87,0.00,,---,0.00,VWS V14.00,2013-01-12 10:44:00,
2013-01-12 05:46:00,51.4,47.7,29.74,SSW,199,0.0,10.0,87,0.00,,---,0.00,VWS V14.00,2013-01-12 10:46:00,
2013-01-12 05:48:00,51.4,47.4,29.74,SSW,205,2.0,10.0,86,0.00,,---,0.00,VWS V14.00,2013-01-12 10:48:00,
2013-01-12 05:50:00,51.4,47.7,29.74,SSW,204,2.0,10.0,87,0.00,,---,0.00,VWS V14.00,2013-01-12 10:50:00,
2013-01-12 05:51:00,51.4,47.7,29.74,SW,222,0.0,10.0,87,0.00,,---,0.00,VWS V14.00,2013-01-12 10:51:00,
2013-01-12 05:52:00,51.4,47.4,29.74,SSW,212,7.0,10.0,86,0.00,,---,0.00,VWS V14.00,2013-01-12 10:52:00,
2013-01-12 05:55:00,51.3,47.3,29.75,SSW,203,10.0,10.0,86,0.00,,---,0.00,VWS V14.00,2013-01-12 10:55:00,
2013-01-12 05:56:00,51.3,47.3,29.75,SW,218,1.0,10.0,86,0.00,,---,0.00,VWS V14.00,2013-01-12 10:56:00,
2013-01-12 05:59:00,51.4,47.4,29.76,SSW,198,1.0,6.0,86,0.00,,---,0.00,VWS V14.00,2013-01-12 10:59:00,
2013-01-12 06:00:00,51.4,47.4,29.75,South,190,3.0,6.0,86,0.00,,---,0.00,VWS V14.00,2013-01-12 11:00:00,
2013-01-12 06:01:00,51.4,47.4,29.75,South,184,2.0,6.0,86,0.00,,---,0.00,VWS V14.00,2013-01-12 11:01:00,
2013-01-12 06:05:00,51.3,47.3,29.75,SSW,213,0.0,11.0,86,0.00,,---,0.00,VWS V14.00,2013-01-12 11:05:00,
2013-01-12 06:06:00,51.3,47.3,29.75,SW,222,5.0,11.0,86,0.00,,---,0.00,VWS V14.00,2013-01-12 11:06:00,
2013-01-12 06:08:00,51.3,47.3,29.75,SSW,203,3.0,11.0,86,0.00,,---,0.00,VWS V14.00,2013-01-12 11:08:00,
2013-01-12 06:10:00,51.3,47.3,29.75,South,191,5.0,11.0,86,0.00,,---,0.00,VWS V14.00,2013-01-12 11:10:00,
2013-01-12 06:11:00,51.3,47.3,29.75,South,188,4.0,11.0,86,0.00,,---,0.00,VWS V14.00,2013-01-12 11:11:00,
2013-01-12 06:12:00,51.3,47.3,29.75,South,183,5.0,11.0,86,0.00,,---,0.00,VWS V14.00,2013-01-12 11:12:00,
2013-01-12 06:14:00,51.3,47.3,29.75,South,184,3.0,11.0,86,0.00,,---,0.00,VWS V14.00,2013-01-12 11:14:00,
2013-01-12 06:15:00,51.3,47.6,29.75,SSW,199,4.0,11.0,87,0.00,,---,0.00,VWS V14.00,2013-01-12 11:15:00,
2013-01-12 06:17:00,51.4,47.7,29.75,SSW,194,3.0,11.0,87,0.00,,---,0.00,VWS V14.00,2013-01-12 11:17:00,
2013-01-12 06:19:00,51.4,47.7,29.76,SSW,194,3.0,11.0,87,0.00,,---,0.00,VWS V14.00,2013-01-12 11:19:00,
2013-01-12 06:21:00,51.4,47.4,29.76,SSW,193,1.0,11.0,86,0.00,,---,0.00,VWS V14.00,2013-01-12 11:21:00,
2013-01-12 06:23:00,51.2,47.2,29.76,SSW,197,1.0,11.0,86,0.00,,---,0.00,VWS V14.00,2013-01-12 11:23:00,
2013-01-12 06:24:00,51.2,47.2,29.76,SSW,197,1.0,11.0,86,0.00,,---,0.00,VWS V14.00,2013-01-12 11:24:00,
2013-01-12 06:25:00,51.2,47.2,29.76,SSW,197,1.0,11.0,86,0.00,,---,0.00,VWS V14.00,2013-01-12 11:25:00,
2013-01-12 06:26:00,51.2,47.2,29.76,SSW,197,1.0,11.0,86,0.00,,---,0.00,VWS V14.00,2013-01-12 11:26:00,
2013-01-12 06:28:00,51.1,47.1,29.77,SSW,197,3.0,3.0,86,0.00,,---,0.00,VWS V14.00,2013-01-12 11:28:00,
2013-01-12 06:29:00,51.0,47.0,29.77,SSW,193,1.0,4.0,86,0.00,,---,0.00,VWS V14.00,2013-01-12 11:29:00,
2013-01-12 06:31:00,51.1,47.1,29.77,SSW,195,1.0,6.0,86,0.00,,---,0.00,VWS V14.00,2013-01-12 11:31:00,
2013-01-12 06:34:00,51.1,47.1,29.76,SSW,205,2.0,7.0,86,0.00,,---,0.00,VWS V14.00,2013-01-12 11:34:00,
2013-01-12 06:35:00,51.0,47.0,29.76,SSW,211,3.0,7.0,86,0.00,,---,0.00,VWS V14.00,2013-01-12 11:35:00,
2013-01-12 06:36:00,51.1,47.4,29.76,SSW,210,1.0,7.0,87,0.00,,---,0.00,VWS V14.00,2013-01-12 11:36:00,
2013-01-12 06:40:00,51.2,47.5,29.76,SW,222,1.0,9.0,87,0.00,,---,0.00,VWS V14.00,2013-01-12 11:40:00,
2013-01-12 06:41:00,51.2,47.5,29.76,SW,222,0.0,9.0,87,0.00,,---,0.00,VWS V14.00,2013-01-12 11:41:00,
2013-01-12 06:45:00,51.2,47.5,29.76,SSW,206,2.0,9.0,87,0.00,,---,0.00,VWS V14.00,2013-01-12 11:45:00,
2013-01-12 06:46:00,51.3,47.6,29.77,SSW,206,0.0,9.0,87,0.00,,---,0.00,VWS V14.00,2013-01-12 11:46:00,
2013-01-12 06:47:00,51.2,47.5,29.77,SSW,206,0.0,9.0,87,0.00,,---,0.00,VWS V14.00,2013-01-12 11:47:00,
2013-01-12 06:48:00,51.3,47.3,29.77,SSW,206,2.0,9.0,86,0.00,,---,0.00,VWS V14.00,2013-01-12 11:48:00,
2013-01-12 06:50:00,51.3,47.6,29.76,SSW,203,0.0,9.0,87,0.00,,---,0.00,VWS V14.00,2013-01-12 11:50:00,
2013-01-12 06:52:00,51.3,47.6,29.76,SSW,202,1.0,9.0,87,0.00,,---,0.00,VWS V14.00,2013-01-12 11:52:00,
2013-01-12 06:53:00,51.2,47.2,29.76,SSW,203,1.0,9.0,86,0.00,,---,0.00,VWS V14.00,2013-01-12 11:53:00,
2013-01-12 06:56:00,51.2,47.2,29.76,SSW,203,1.0,9.0,86,0.00,,---,0.00,VWS V14.00,2013-01-12 11:56:00,
2013-01-12 06:57:00,51.2,47.5,29.76,SSW,203,3.0,9.0,87,0.00,,---,0.00,VWS V14.00,2013-01-12 11:57:00,
2013-01-12 06:58:00,51.3,47.6,29.76,SSW,203,2.0,2.0,87,0.00,,---,0.00,VWS V14.00,2013-01-12 11:58:00,
2013-01-12 06:59:00,51.3,47.6,29.76,SSW,202,2.0,4.0,87,0.00,,---,0.00,VWS V14.00,2013-01-12 11:59:00,
2013-01-12 07:02:00,51.2,47.5,29.77,SSW,202,4.0,4.0,87,0.00,,---,0.00,VWS V14.00,2013-01-12 12:02:00,
2013-01-12 07:03:00,51.2,47.5,29.77,SSW,202,1.0,4.0,87,0.00,,---,0.00,VWS V14.00,2013-01-12 12:03:00,
2013-01-12 07:04:00,51.2,47.5,29.77,SSW,202,1.0,4.0,87,0.00,,---,0.00,VWS V14.00,2013-01-12 12:04:00,
2013-01-12 07:05:00,51.2,47.5,29.77,SSW,202,0.0,4.0,87,0.00,,---,0.00,VWS V14.00,2013-01-12 12:05:00,
2013-01-12 07:07:00,51.1,47.4,29.77,SSW,202,0.0,4.0,87,0.00,,---,0.00,VWS V14.00,2013-01-12 12:07:00,
2013-01-12 07:09:00,51.0,47.3,29.77,SSW,202,0.0,4.0,87,0.00,,---,0.00,VWS V14.00,2013-01-12 12:09:00,
2013-01-12 07:10:00,51.0,47.3,29.77,SSW,202,2.0,4.0,87,0.00,,---,0.00,VWS V14.00,2013-01-12 12:10:00,
2013-01-12 07:12:00,50.9,47.2,29.77,SSW,202,2.0,4.0,87,0.00,,---,0.00,VWS V14.00,2013-01-12 12:12:00,
2013-01-12 07:15:00,50.8,47.1,29.78,SSW,202,3.0,6.0,87,0.00,,---,0.00,VWS V14.00,2013-01-12 12:15:00,
2013-01-12 07:16:00,50.8,47.1,29.78,SSW,202,3.0,6.0,87,0.00,,---,0.00,VWS V14.00,2013-01-12 12:16:00,
2013-01-12 07:17:00,50.8,47.1,29.78,SSW,200,1.0,6.0,87,0.00,,---,0.00,VWS V14.00,2013-01-12 12:17:00,
2013-01-12 07:21:00,50.8,47.4,29.79,SSW,200,1.0,6.0,88,0.00,,---,0.00,VWS V14.00,2013-01-12 12:21:00,
2013-01-12 07:22:00,50.8,47.1,29.79,SSW,200,2.0,6.0,87,0.00,,---,0.00,VWS V14.00,2013-01-12 12:22:00,
2013-01-12 07:23:00,50.8,47.1,29.79,SSW,201,2.0,6.0,87,0.00,,---,0.00,VWS V14.00,2013-01-12 12:23:00,
2013-01-12 07:26:00,50.6,46.9,29.79,SSW,200,3.0,6.0,87,0.00,,---,0.00,VWS V14.00,2013-01-12 12:26:00,
2013-01-12 07:28:00,50.6,46.9,29.79,SSW,200,1.0,6.0,87,0.00,,---,0.00,VWS V14.00,2013-01-12 12:28:00,
2013-01-12 07:29:00,50.6,46.9,29.79,SSW,200,2.0,2.0,87,0.00,,---,0.00,VWS V14.00,2013-01-12 12:29:00,
2013-01-12 07:33:00,50.5,46.8,29.80,SSW,200,0.0,4.0,87,0.00,,---,0.00,VWS V14.00,2013-01-12 12:33:00,
2013-01-12 07:34:00,50.5,47.1,29.80,SSW,200,0.0,4.0,88,0.00,,---,0.00,VWS V14.00,2013-01-12 12:34:00,
2013-01-12 07:35:00,50.5,47.1,29.80,SSW,200,1.0,4.0,88,0.00,,---,0.00,VWS V14.00,2013-01-12 12:35:00,
2013-01-12 07:36:00,50.5,47.1,29.80,SSW,200,1.0,4.0,88,0.00,,---,0.00,VWS V14.00,2013-01-12 12:36:00,
2013-01-12 07:38:00,50.5,47.1,29.80,SSW,200,1.0,4.0,88,0.00,,---,0.00,VWS V14.00,2013-01-12 12:38:00,
2013-01-12 07:39:00,50.5,47.1,29.80,SSW,202,3.0,4.0,88,0.00,,---,0.00,VWS V14.00,2013-01-12 12:39:00,
2013-01-12 07:40:00,50.5,47.1,29.80,SSW,202,3.0,5.0,88,0.00,,---,0.00,VWS V14.00,2013-01-12 12:40:00,
2013-01-12 07:44:00,50.6,47.2,29.80,SSW,196,3.0,6.0,88,0.00,,---,0.00,VWS V14.00,2013-01-12 12:44:00,
2013-01-12 07:45:00,50.6,47.2,29.80,South,191,2.0,7.0,88,0.00,,---,0.00,VWS V14.00,2013-01-12 12:45:00,
2013-01-12 07:49:00,50.7,47.3,29.80,SSW,195,3.0,7.0,88,0.00,,---,0.00,VWS V14.00,2013-01-12 12:49:00,
2013-01-12 07:50:00,50.7,47.3,29.80,South,187,2.0,7.0,88,0.00,,---,0.00,VWS V14.00,2013-01-12 12:50:00,
2013-01-12 07:51:00,50.7,47.3,29.80,South,188,2.0,7.0,88,0.00,,---,0.00,VWS V14.00,2013-01-12 12:51:00,
2013-01-12 07:55:00,50.6,47.2,29.80,South,184,1.0,7.0,88,0.00,,---,0.00,VWS V14.00,2013-01-12 12:55:00,
2013-01-12 07:56:00,50.6,47.2,29.80,South,184,4.0,7.0,88,0.00,,---,0.00,VWS V14.00,2013-01-12 12:56:00,
2013-01-12 08:01:00,50.5,47.1,29.80,South,184,3.0,6.0,88,0.00,,---,0.00,VWS V14.00,2013-01-12 13:01:00,
2013-01-12 08:02:00,50.5,47.1,29.81,South,184,3.0,6.0,88,0.00,,---,0.00,VWS V14.00,2013-01-12 13:02:00,
2013-01-12 08:04:00,50.4,47.0,29.81,South,186,1.0,6.0,88,0.00,,---,0.00,VWS V14.00,2013-01-12 13:04:00,
2013-01-12 08:06:00,50.4,47.0,29.81,South,186,2.0,6.0,88,0.00,,---,0.00,VWS V14.00,2013-01-12 13:06:00,
2013-01-12 08:07:00,50.4,47.0,29.81,South,186,0.0,6.0,88,0.00,,---,0.00,VWS V14.00,2013-01-12 13:07:00,
2013-01-12 08:10:00,50.4,47.0,29.81,South,182,3.0,6.0,88,0.00,,---,0.00,VWS V14.00,2013-01-12 13:10:00,
2013-01-12 08:12:00,50.4,47.0,29.81,SSW,194,3.0,9.0,88,0.00,,---,0.00,VWS V14.00,2013-01-12 13:12:00,
2013-01-12 08:13:00,50.5,47.1,29.81,SSW,194,3.0,9.0,88,0.00,,---,0.00,VWS V14.00,2013-01-12 13:13:00,
2013-01-12 08:16:00,50.5,47.1,29.81,SSW,193,2.0,9.0,88,0.00,,---,0.00,VWS V14.00,2013-01-12 13:16:00,
2013-01-12 08:17:00,50.5,47.1,29.81,SSW,193,4.0,9.0,88,0.00,,---,0.00,VWS V14.00,2013-01-12 13:17:00,
2013-01-12 08:18:00,50.5,47.1,29.81,SSW,192,4.0,9.0,88,0.00,,---,0.00,VWS V14.00,2013-01-12 13:18:00,
2013-01-12 08:19:00,50.5,47.1,29.81,SSW,192,1.0,9.0,88,0.00,,---,0.00,VWS V14.00,2013-01-12 13:19:00,
2013-01-12 08:22:00,50.5,47.1,29.81,SSW,194,5.0,9.0,88,0.00,,---,0.00,VWS V14.00,2013-01-12 13:22:00,
2013-01-12 08:23:00,50.6,47.2,29.81,SSW,194,1.0,9.0,88,0.00,,---,0.00,VWS V14.00,2013-01-12 13:23:00,
2013-01-12 08:24:00,50.6,47.2,29.81,SSW,194,0.0,9.0,88,0.00,,---,0.00,VWS V14.00,2013-01-12 13:24:00,
2013-01-12 08:26:00,50.5,47.1,29.82,South,190,2.0,9.0,88,0.00,,---,0.00,VWS V14.00,2013-01-12 13:26:00,
2013-01-12 08:28:00,50.6,47.2,29.81,South,186,2.0,9.0,88,0.00,,---,0.00,VWS V14.00,2013-01-12 13:28:00,
2013-01-12 08:29:00,50.6,47.2,29.81,South,190,2.0,7.0,88,0.00,,---,0.00,VWS V14.00,2013-01-12 13:29:00,
2013-01-12 08:32:00,50.7,47.3,29.82,South,180,3.0,7.0,88,0.00,,---,0.00,VWS V14.00,2013-01-12 13:32:00,
2013-01-12 08:33:00,50.8,47.4,29.81,SSW,202,1.0,7.0,88,0.00,,---,0.00,VWS V14.00,2013-01-12 13:33:00,
2013-01-12 08:34:00,50.8,47.4,29.81,SSW,200,3.0,7.0,88,0.00,,---,0.00,VWS V14.00,2013-01-12 13:34:00,
2013-01-12 08:36:00,50.8,47.4,29.81,South,184,5.0,7.0,88,0.00,,---,0.00,VWS V14.00,2013-01-12 13:36:00,
2013-01-12 08:38:00,50.9,47.5,29.81,South,182,2.0,7.0,88,0.00,,---,0.00,VWS V14.00,2013-01-12 13:38:00,
2013-01-12 08:41:00,50.9,47.5,29.82,South,187,1.0,8.0,88,0.00,,---,0.00,VWS V14.00,2013-01-12 13:41:00,
2013-01-12 08:42:00,50.9,47.5,29.82,South,188,2.0,8.0,88,0.00,,---,0.00,VWS V14.00,2013-01-12 13:42:00,
2013-01-12 08:45:00,50.8,47.4,29.82,South,191,3.0,8.0,88,0.00,,---,0.00,VWS V14.00,2013-01-12 13:45:00,
2013-01-12 08:48:00,50.8,47.4,29.82,SSW,193,2.0,8.0,88,0.00,,---,0.00,VWS V14.00,2013-01-12 13:48:00,
2013-01-12 08:49:00,50.8,47.4,29.82,South,191,2.0,8.0,88,0.00,,---,0.00,VWS V14.00,2013-01-12 13:49:00,
2013-01-12 08:50:00,50.8,47.4,29.82,SSW,195,3.0,8.0,88,0.00,,---,0.00,VWS V14.00,2013-01-12 13:50:00,
2013-01-12 08:53:00,50.9,47.5,29.82,SSW,196,2.0,8.0,88,0.00,,---,0.00,VWS V14.00,2013-01-12 13:53:00,
2013-01-12 08:55:00,50.9,47.5,29.82,South,191,2.0,8.0,88,0.00,,---,0.00,VWS V14.00,2013-01-12 13:55:00,
2013-01-12 08:57:00,50.9,47.5,29.82,South,186,2.0,8.0,88,0.00,,---,0.00,VWS V14.00,2013-01-12 13:57:00,
2013-01-12 08:58:00,51.0,47.6,29.82,South,182,3.0,8.0,88,0.00,,---,0.00,VWS V14.00,2013-01-12 13:58:00,
2013-01-12 09:01:00,51.0,47.6,29.82,South,172,2.0,10.0,88,0.00,,---,0.00,VWS V14.00,2013-01-12 14:01:00,
2013-01-12 09:02:00,51.1,47.7,29.82,South,172,3.0,10.0,88,0.00,,---,0.00,VWS V14.00,2013-01-12 14:02:00,
2013-01-12 09:03:00,51.0,47.6,29.82,South,176,4.0,10.0,88,0.00,,---,0.00,VWS V14.00,2013-01-12 14:03:00,
2013-01-12 09:04:00,51.1,47.7,29.82,South,188,5.0,10.0,88,0.00,,---,0.00,VWS V14.00,2013-01-12 14:04:00,
2013-01-12 09:06:00,51.1,47.7,29.82,South,182,1.0,10.0,88,0.00,,---,0.00,VWS V14.00,2013-01-12 14:06:00,
2013-01-12 09:07:00,51.1,47.7,29.82,South,181,3.0,10.0,88,0.00,,---,0.00,VWS V14.00,2013-01-12 14:07:00,
2013-01-12 09:08:00,51.1,47.7,29.83,South,177,3.0,10.0,88,0.00,,---,0.00,VWS V14.00,2013-01-12 14:08:00,
2013-01-12 09:10:00,51.1,47.7,29.82,South,178,2.0,10.0,88,0.00,,---,0.00,VWS V14.00,2013-01-12 14:10:00,
2013-01-12 09:12:00,51.0,47.6,29.82,South,176,4.0,10.0,88,0.00,,---,0.00,VWS V14.00,2013-01-12 14:12:00,
2013-01-12 09:14:00,51.0,47.6,29.82,SSW,197,1.0,10.0,88,0.00,,---,0.00,VWS V14.00,2013-01-12 14:14:00,
2013-01-12 09:15:00,51.1,47.7,29.82,SSW,196,1.0,10.0,88,0.00,,---,0.00,VWS V14.00,2013-01-12 14:15:00,
2013-01-12 09:16:00,51.1,47.7,29.82,SSW,196,2.0,10.0,88,0.00,,---,0.00,VWS V14.00,2013-01-12 14:16:00,
2013-01-12 09:20:00,51.2,47.8,29.83,South,190,3.0,10.0,88,0.00,,---,0.00,VWS V14.00,2013-01-12 14:20:00,
2013-01-12 09:21:00,51.3,47.9,29.83,SSW,192,1.0,10.0,88,0.00,,---,0.00,VWS V14.00,2013-01-12 14:21:00,
2013-01-12 09:22:00,51.3,47.9,29.82,SSW,192,3.0,10.0,88,0.00,,---,0.00,VWS V14.00,2013-01-12 14:22:00,
2013-01-12 09:23:00,51.2,47.8,29.82,SSW,194,4.0,10.0,88,0.00,,---,0.00,VWS V14.00,2013-01-12 14:23:00,
2013-01-12 09:25:00,51.3,47.9,29.82,SSW,194,1.0,10.0,88,0.00,,---,0.00,VWS V14.00,2013-01-12 14:25:00,
2013-01-12 09:26:00,51.3,47.9,29.83,SSW,194,2.0,10.0,88,0.00,,---,0.00,VWS V14.00,2013-01-12 14:26:00,
2013-01-12 09:28:00,51.4,48.0,29.83,SSW,198,2.0,10.0,88,0.00,,---,0.00,VWS V14.00,2013-01-12 14:28:00,
2013-01-12 09:32:00,51.5,48.1,29.83,SW,215,1.0,5.0,88,0.00,,---,0.00,VWS V14.00,2013-01-12 14:32:00,
2013-01-12 09:33:00,51.6,48.2,29.83,SSW,205,4.0,5.0,88,0.00,,---,0.00,VWS V14.00,2013-01-12 14:33:00,
2013-01-12 09:35:00,51.6,48.2,29.83,South,190,3.0,6.0,88,0.00,,---,0.00,VWS V14.00,2013-01-12 14:35:00,
2013-01-12 09:37:00,51.6,48.2,29.83,SSW,193,4.0,9.0,88,0.00,,---,0.00,VWS V14.00,2013-01-12 14:37:00,
2013-01-12 09:38:00,51.7,48.3,29.83,South,191,4.0,9.0,88,0.00,,---,0.00,VWS V14.00,2013-01-12 14:38:00,
2013-01-12 09:42:00,51.7,48.3,29.83,South,184,1.0,9.0,88,0.00,,---,0.00,VWS V14.00,2013-01-12 14:42:00,
2013-01-12 09:43:00,51.7,48.3,29.83,SSW,205,2.0,9.0,88,0.00,,---,0.00,VWS V14.00,2013-01-12 14:43:00,
2013-01-12 09:44:00,51.8,48.4,29.83,SSW,200,6.0,9.0,88,0.00,,---,0.00,VWS V14.00,2013-01-12 14:44:00,
2013-01-12 09:48:00,51.9,48.2,29.83,South,190,2.0,9.0,87,0.00,,---,0.00,VWS V14.00,2013-01-12 14:48:00,
2013-01-12 09:49:00,51.9,48.2,29.83,South,190,2.0,9.0,87,0.00,,---,0.00,VWS V14.00,2013-01-12 14:49:00,
2013-01-12 09:50:00,52.0,48.3,29.83,South,184,2.0,9.0,87,0.00,,---,0.00,VWS V14.00,2013-01-12 14:50:00,
2013-01-12 09:51:00,52.1,48.7,29.83,South,183,2.0,9.0,88,0.00,,---,0.00,VWS V14.00,2013-01-12 14:51:00,
2013-01-12 09:53:00,52.2,48.8,29.83,SW,225,6.0,11.0,88,0.00,,---,0.00,VWS V14.00,2013-01-12 14:53:00,
2013-01-12 09:55:00,52.2,48.8,29.83,SW,217,3.0,11.0,88,0.00,,---,0.00,VWS V14.00,2013-01-12 14:55:00,
2013-01-12 09:56:00,52.3,48.9,29.83,SSW,202,6.0,11.0,88,0.00,,---,0.00,VWS V14.00,2013-01-12 14:56:00,
2013-01-12 09:59:00,52.4,48.7,29.83,South,190,2.0,5.0,87,0.00,,---,0.00,VWS V14.00,2013-01-12 14:59:00,
2013-01-12 10:01:00,52.5,48.8,29.83,South,184,2.0,6.0,87,0.00,,---,0.00,VWS V14.00,2013-01-12 15:01:00,
2013-01-12 10:02:00,52.5,48.8,29.83,South,184,1.0,6.0,87,0.00,,---,0.00,VWS V14.00,2013-01-12 15:02:00,
2013-01-12 10:03:00,52.6,48.8,29.83,South,176,6.0,6.0,87,0.00,,---,0.00,VWS V14.00,2013-01-12 15:03:00,
2013-01-12 10:05:00,52.6,48.8,29.83,South,178,3.0,6.0,87,0.00,,---,0.00,VWS V14.00,2013-01-12 15:05:00,
2013-01-12 10:08:00,52.6,48.8,29.83,South,178,2.0,6.0,87,0.00,,---,0.00,VWS V14.00,2013-01-12 15:08:00,
2013-01-12 10:09:00,52.7,49.0,29.83,South,182,3.0,6.0,87,0.00,,---,0.00,VWS V14.00,2013-01-12 15:09:00,
2013-01-12 10:10:00,52.7,49.0,29.84,South,182,3.0,6.0,87,0.00,,---,0.00,VWS V14.00,2013-01-12 15:10:00,
2013-01-12 10:14:00,52.7,49.0,29.84,South,182,1.0,6.0,87,0.00,,---,0.00,VWS V14.00,2013-01-12 15:14:00,
2013-01-12 10:16:00,52.8,49.0,29.84,SW,219,2.0,9.0,87,0.00,,---,0.00,VWS V14.00,2013-01-12 15:16:00,
2013-01-12 10:19:00,52.9,49.1,29.84,SSW,213,3.0,9.0,87,0.00,,---,0.00,VWS V14.00,2013-01-12 15:19:00,
2013-01-12 10:20:00,53.0,48.9,29.83,SW,230,0.0,9.0,86,0.00,,---,0.00,VWS V14.00,2013-01-12 15:20:00,
2013-01-12 10:22:00,53.2,49.1,29.84,SW,225,2.0,9.0,86,0.00,,---,0.00,VWS V14.00,2013-01-12 15:22:00,
2013-01-12 10:24:00,53.4,49.6,29.84,SSW,213,4.0,9.0,87,0.00,,---,0.00,VWS V14.00,2013-01-12 15:24:00,
2013-01-12 10:25:00,53.4,49.6,29.84,SSW,213,2.0,9.0,87,0.00,,---,0.00,VWS V14.00,2013-01-12 15:25:00,
2013-01-12 10:26:00,53.5,49.4,29.84,SSW,205,1.0,9.0,86,0.00,,---,0.00,VWS V14.00,2013-01-12 15:26:00,
2013-01-12 10:29:00,53.7,49.6,29.84,SSW,210,2.0,10.0,86,0.00,,---,0.00,VWS V14.00,2013-01-12 15:29:00,
2013-01-12 10:30:00,53.7,49.6,29.84,SSW,208,3.0,10.0,86,0.00,,---,0.00,VWS V14.00,2013-01-12 15:30:00,
2013-01-12 10:32:00,53.9,49.8,29.84,SSW,192,4.0,10.0,86,0.00,,---,0.00,VWS V14.00,2013-01-12 15:32:00,
2013-01-12 10:33:00,53.9,49.8,29.84,South,189,2.0,10.0,86,0.00,,---,0.00,VWS V14.00,2013-01-12 15:33:00,
2013-01-12 10:36:00,54.1,50.0,29.84,SSW,198,5.0,10.0,86,0.00,,---,0.00,VWS V14.00,2013-01-12 15:36:00,
2013-01-12 10:37:00,54.1,50.0,29.84,SSW,198,2.0,10.0,86,0.00,,---,0.00,VWS V14.00,2013-01-12 15:37:00,
2013-01-12 10:39:00,54.2,49.8,29.84,SSW,198,3.0,10.0,85,0.00,,---,0.00,VWS V14.00,2013-01-12 15:39:00,
2013-01-12 10:42:00,54.3,49.9,29.84,SW,214,1.0,10.0,85,0.00,,---,0.00,VWS V14.00,2013-01-12 15:42:00,
2013-01-12 10:43:00,54.3,49.9,29.84,SW,214,1.0,10.0,85,0.00,,---,0.00,VWS V14.00,2013-01-12 15:43:00,
2013-01-12 10:44:00,54.3,49.9,29.84,SW,233,0.0,10.0,85,0.00,,---,0.00,VWS V14.00,2013-01-12 15:44:00,
2013-01-12 10:48:00,54.4,49.7,29.84,WSW,246,1.0,11.0,84,0.00,,---,0.00,VWS V14.00,2013-01-12 15:48:00,
2013-01-12 10:49:00,54.4,49.7,29.84,WSW,239,2.0,11.0,84,0.00,,---,0.00,VWS V14.00,2013-01-12 15:49:00,
2013-01-12 10:50:00,54.5,49.8,29.84,SSW,210,4.0,11.0,84,0.00,,---,0.00,VWS V14.00,2013-01-12 15:50:00,
2013-01-12 10:54:00,54.7,50.0,29.84,SW,227,3.0,11.0,84,0.00,,---,0.00,VWS V14.00,2013-01-12 15:54:00,
2013-01-12 10:55:00,54.8,50.1,29.84,SW,227,2.0,11.0,84,0.00,,---,0.00,VWS V14.00,2013-01-12 15:55:00,
2013-01-12 10:57:00,54.8,49.7,29.84,SW,228,1.0,11.0,83,0.00,,---,0.00,VWS V14.00,2013-01-12 15:57:00,
2013-01-12 10:59:00,54.9,49.8,29.84,WSW,256,2.0,5.0,83,0.00,,---,0.00,VWS V14.00,2013-01-12 15:59:00,
2013-01-12 11:00:00,54.9,49.8,29.84,WSW,242,5.0,9.0,83,0.00,,---,0.00,VWS V14.00,2013-01-12 16:00:00,
2013-01-12 11:02:00,55.0,49.9,29.85,SW,227,2.0,9.0,83,0.00,,---,0.00,VWS V14.00,2013-01-12 16:02:00,
2013-01-12 11:03:00,55.0,49.9,29.84,SW,232,5.0,10.0,83,0.00,,---,0.00,VWS V14.00,2013-01-12 16:03:00,
2013-01-12 11:05:00,55.1,49.7,29.85,SW,222,3.0,10.0,82,0.00,,---,0.00,VWS V14.00,2013-01-12 16:05:00,
2013-01-12 11:07:00,55.2,49.8,29.85,WSW,238,4.0,10.0,82,0.00,,---,0.00,VWS V14.00,2013-01-12 16:07:00,
2013-01-12 11:09:00,55.4,50.0,29.85,West,264,7.0,12.0,82,0.00,,---,0.00,VWS V14.00,2013-01-12 16:09:00,
2013-01-12 11:10:00,55.4,50.0,29.85,SW,226,6.0,12.0,82,0.00,,---,0.00,VWS V14.00,2013-01-12 16:10:00,
2013-01-12 11:12:00,55.5,50.1,29.85,SW,217,5.0,12.0,82,0.00,,---,0.00,VWS V14.00,2013-01-12 16:12:00,
2013-01-12 11:13:00,55.5,50.1,29.85,SSW,205,3.0,12.0,82,0.00,,---,0.00,VWS V14.00,2013-01-12 16:13:00,
2013-01-12 11:15:00,55.7,50.0,29.84,SW,226,1.0,12.0,81,0.00,,---,0.00,VWS V14.00,2013-01-12 16:15:00,
2013-01-12 11:16:00,55.8,50.1,29.84,West,259,9.0,12.0,81,0.00,,---,0.00,VWS V14.00,2013-01-12 16:16:00,
2013-01-12 11:17:00,55.8,50.1,29.85,WSW,253,1.0,12.0,81,0.00,,---,0.00,VWS V14.00,2013-01-12 16:17:00,
2013-01-12 11:20:00,55.9,50.2,29.84,SW,227,3.0,12.0,81,0.00,,---,0.00,VWS V14.00,2013-01-12 16:20:00,
2013-01-12 11:21:00,56.0,50.3,29.84,SW,227,2.0,12.0,81,0.00,,---,0.00,VWS V14.00,2013-01-12 16:21:00,
2013-01-12 11:22:00,56.0,50.3,29.84,SW,233,2.0,12.0,81,0.00,,---,0.00,VWS V14.00,2013-01-12 16:22:00,
2013-01-12 11:26:00,56.0,49.9,29.84,SW,226,4.0,12.0,80,0.00,,---,0.00,VWS V14.00,2013-01-12 16:26:00,
2013-01-12 11:28:00,56.1,50.0,29.84,SW,214,3.0,12.0,80,0.00,,---,0.00,VWS V14.00,2013-01-12 16:28:00,
2013-01-12 11:31:00,56.1,50.0,29.83,West,271,2.0,8.0,80,0.00,,---,0.00,VWS V14.00,2013-01-12 16:31:00,
2013-01-12 11:32:00,56.1,50.0,29.83,WSW,253,5.0,9.0,80,0.00,,---,0.00,VWS V14.00,2013-01-12 16:32:00,
2013-01-12 11:33:00,56.2,50.1,29.83,WSW,247,4.0,9.0,80,0.00,,---,0.00,VWS V14.00,2013-01-12 16:33:00,
2013-01-12 11:36:00,56.2,50.1,29.83,WSW,253,3.0,12.0,80,0.00,,---,0.00,VWS V14.00,2013-01-12 16:36:00,
2013-01-12 11:38:00,56.2,49.8,29.83,WSW,249,9.0,12.0,79,0.00,,---,0.00,VWS V14.00,2013-01-12 16:38:00,
2013-01-12 11:39:00,56.2,49.8,29.83,WSW,253,9.0,12.0,79,0.00,,---,0.00,VWS V14.00,2013-01-12 16:39:00,
2013-01-12 11:42:00,56.2,49.8,29.84,WSW,254,5.0,12.0,79,0.00,,---,0.00,VWS V14.00,2013-01-12 16:42:00,
2013-01-12 11:44:00,56.3,49.9,29.84,West,279,4.0,12.0,79,0.00,,---,0.00,VWS V14.00,2013-01-12 16:44:00,
2013-01-12 11:45:00,56.3,49.9,29.84,WSW,257,6.0,12.0,79,0.00,,---,0.00,VWS V14.00,2013-01-12 16:45:00,
2013-01-12 11:47:00,56.3,49.5,29.84,West,259,1.0,12.0,78,0.00,,---,0.00,VWS V14.00,2013-01-12 16:47:00,
2013-01-12 11:50:00,56.4,49.6,29.84,West,275,6.0,13.0,78,0.00,,---,0.00,VWS V14.00,2013-01-12 16:50:00,
2013-01-12 11:51:00,56.5,49.7,29.84,WSW,257,10.0,13.0,78,0.00,,---,0.00,VWS V14.00,2013-01-12 16:51:00,
2013-01-12 11:52:00,56.5,49.7,29.84,WSW,252,13.0,13.0,78,0.00,,---,0.00,VWS V14.00,2013-01-12 16:52:00,
2013-01-12 11:55:00,56.6,49.8,29.84,WSW,250,3.0,16.0,78,0.00,,---,0.00,VWS V14.00,2013-01-12 16:55:00,
2013-01-12 11:57:00,56.8,50.0,29.84,WNW,302,1.0,16.0,78,0.00,,---,0.00,VWS V14.00,2013-01-12 16:57:00,
2013-01-12 11:58:00,56.8,49.7,29.84,SW,219,7.0,16.0,77,0.00,,---,0.00,VWS V14.00,2013-01-12 16:58:00,
2013-01-12 11:59:00,56.9,49.8,29.84,WSW,246,6.0,11.0,77,0.00,,---,0.00,VWS V14.00,2013-01-12 16:59:00,
2013-01-12 12:00:00,56.9,49.8,29.85,WSW,256,6.0,11.0,77,0.00,,---,0.00,VWS V14.00,2013-01-12 17:00:00,
2013-01-12 12:03:00,57.0,49.5,29.84,WSW,246,8.0,11.0,76,0.00,,---,0.00,VWS V14.00,2013-01-12 17:03:00,
2013-01-12 12:06:00,57.0,49.5,29.84,WSW,244,11.0,14.0,76,0.00,,---,0.00,VWS V14.00,2013-01-12 17:06:00,
2013-01-12 12:07:00,56.9,49.4,29.84,West,277,10.0,15.0,76,0.00,,---,0.00,VWS V14.00,2013-01-12 17:07:00,
2013-01-12 12:08:00,57.0,49.5,29.84,WSW,247,11.0,15.0,76,0.00,,---,0.00,VWS V14.00,2013-01-12 17:08:00,
2013-01-12 12:09:00,57.0,49.5,29.84,SW,225,16.0,16.0,76,0.00,,---,0.00,VWS V14.00,2013-01-12 17:09:00,
2013-01-12 12:12:00,57.1,49.6,29.84,WNW,285,16.0,16.0,76,0.00,,---,0.00,VWS V14.00,2013-01-12 17:12:00,
2013-01-12 12:13:00,57.1,49.3,29.83,West,265,7.0,17.0,75,0.00,,---,0.00,VWS V14.00,2013-01-12 17:13:00,
2013-01-12 12:14:00,57.2,49.4,29.83,West,271,11.0,17.0,75,0.00,,---,0.00,VWS V14.00,2013-01-12 17:14:00,
2013-01-12 12:17:00,57.5,49.7,29.83,WSW,254,9.0,17.0,75,0.00,,---,0.00,VWS V14.00,2013-01-12 17:17:00,
2013-01-12 12:18:00,57.5,49.3,29.83,West,259,6.0,17.0,74,0.00,,---,0.00,VWS V14.00,2013-01-12 17:18:00,
2013-01-12 12:19:00,57.6,49.4,29.83,West,264,6.0,17.0,74,0.00,,---,0.00,VWS V14.00,2013-01-12 17:19:00,
2013-01-12 12:21:00,57.7,49.5,29.83,West,265,13.0,17.0,74,0.00,,---,0.00,VWS V14.00,2013-01-12 17:21:00,
2013-01-12 12:24:00,57.9,49.3,29.83,West,263,7.0,17.0,73,0.00,,---,0.00,VWS V14.00,2013-01-12 17:24:00,
2013-01-12 12:27:00,58.1,49.5,29.82,WSW,255,5.0,17.0,73,0.00,,---,0.00,VWS V14.00,2013-01-12 17:27:00,
2013-01-12 12:30:00,58.3,49.3,29.83,WSW,250,5.0,15.0,72,0.00,,---,0.00,VWS V14.00,2013-01-12 17:30:00,
2013-01-12 12:32:00,58.4,49.0,29.83,West,260,6.0,15.0,71,0.00,,---,0.00,VWS V14.00,2013-01-12 17:32:00,
2013-01-12 12:35:00,58.6,48.9,29.83,West,280,15.0,18.0,70,0.00,,---,0.00,VWS V14.00,2013-01-12 17:35:00,
2013-01-12 12:36:00,58.7,49.0,29.83,West,270,9.0,19.0,70,0.00,,---,0.00,VWS V14.00,2013-01-12 17:36:00,
2013-01-12 12:38:00,58.7,48.6,29.83,West,273,9.0,19.0,69,0.00,,---,0.00,VWS V14.00,2013-01-12 17:38:00,
2013-01-12 12:41:00,59.0,48.9,29.83,West,275,9.0,19.0,69,0.00,,---,0.00,VWS V14.00,2013-01-12 17:41:00,
2013-01-12 12:42:00,59.0,48.5,29.83,West,271,15.0,19.0,68,0.00,,---,0.00,VWS V14.00,2013-01-12 17:42:00,
2013-01-12 12:44:00,59.0,48.5,29.83,West,267,6.0,19.0,68,0.00,,---,0.00,VWS V14.00,2013-01-12 17:44:00,
2013-01-12 12:45:00,59.0,48.9,29.83,West,271,5.0,19.0,69,0.00,,---,0.00,VWS V14.00,2013-01-12 17:45:00,
2013-01-12 12:47:00,59.0,48.9,29.83,WSW,258,14.0,19.0,69,0.00,,---,0.00,VWS V14.00,2013-01-12 17:47:00,
2013-01-12 12:49:00,58.9,48.4,29.83,West,271,10.0,19.0,68,0.00,,---,0.00,VWS V14.00,2013-01-12 17:49:00,
2013-01-12 12:51:00,58.8,48.3,29.83,West,275,14.0,19.0,68,0.00,,---,0.00,VWS V14.00,2013-01-12 17:51:00,
2013-01-12 12:54:00,58.9,48.4,29.84,West,260,13.0,19.0,68,0.00,,---,0.00,VWS V14.00,2013-01-12 17:54:00,
2013-01-12 12:55:00,58.8,48.3,29.84,West,261,12.0,19.0,68,0.00,,---,0.00,VWS V14.00,2013-01-12 17:55:00,
2013-01-12 12:56:00,58.8,48.3,29.84,West,264,15.0,19.0,68,0.00,,---,0.00,VWS V14.00,2013-01-12 17:56:00,
2013-01-12 12:57:00,58.7,47.8,29.84,West,261,5.0,19.0,67,0.00,,---,0.00,VWS V14.00,2013-01-12 17:57:00,
2013-01-12 13:00:00,58.6,47.7,29.84,West,264,12.0,20.0,67,0.00,,---,0.00,VWS V14.00,2013-01-12 18:00:00,
2013-01-12 13:01:00,58.4,47.1,29.84,West,274,13.0,20.0,66,0.00,,---,0.00,VWS V14.00,2013-01-12 18:01:00,
2013-01-12 13:03:00,58.3,47.0,29.84,WSW,244,12.0,20.0,66,0.00,,---,0.00,VWS V14.00,2013-01-12 18:03:00,
2013-01-12 13:05:00,58.2,47.3,29.84,WNW,288,6.0,20.0,67,0.00,,---,0.00,VWS V14.00,2013-01-12 18:05:00,
2013-01-12 13:06:00,58.3,47.8,29.84,WNW,290,8.0,20.0,68,0.00,,---,0.00,VWS V14.00,2013-01-12 18:06:00,
2013-01-12 13:07:00,58.3,47.4,29.85,North,360,10.0,20.0,67,0.00,,---,0.00,VWS V14.00,2013-01-12 18:07:00,
2013-01-12 13:09:00,58.3,47.4,29.84,SW,234,4.0,20.0,67,0.00,,---,0.00,VWS V14.00,2013-01-12 18:09:00,
2013-01-12 13:10:00,58.3,47.4,29.84,West,271,8.0,20.0,67,0.00,,---,0.00,VWS V14.00,2013-01-12 18:10:00,
2013-01-12 13:12:00,58.4,47.5,29.84,SSW,195,17.0,20.0,67,0.00,,---,0.00,VWS V14.00,2013-01-12 18:12:00,
2013-01-12 13:13:00,58.4,47.5,29.84,West,262,8.0,20.0,67,0.00,,---,0.00,VWS V14.00,2013-01-12 18:13:00,
2013-01-12 13:14:00,58.3,47.8,29.85,West,272,7.0,20.0,68,0.00,,---,0.00,VWS V14.00,2013-01-12 18:14:00,
2013-01-12 13:17:00,58.4,47.9,29.85,West,265,9.0,20.0,68,0.00,,---,0.00,VWS V14.00,2013-01-12 18:17:00,
2013-01-12 13:19:00,58.4,47.9,29.85,West,280,13.0,20.0,68,0.00,,---,0.00,VWS V14.00,2013-01-12 18:19:00,
2013-01-12 13:23:00,58.5,48.0,29.85,West,269,6.0,20.0,68,0.00,,---,0.00,VWS V14.00,2013-01-12 18:23:00,
2013-01-12 13:25:00,58.7,48.2,29.85,West,269,2.0,20.0,68,0.00,,---,0.00,VWS V14.00,2013-01-12 18:25:00,
2013-01-12 13:27:00,58.9,48.4,29.85,WSW,243,4.0,20.0,68,0.00,,---,0.00,VWS V14.00,2013-01-12 18:27:00,
2013-01-12 13:28:00,58.8,48.3,29.85,West,280,13.0,20.0,68,0.00,,---,0.00,VWS V14.00,2013-01-12 18:28:00,
2013-01-12 13:30:00,58.9,48.4,29.85,West,274,9.0,15.0,68,0.00,,---,0.00,VWS V14.00,2013-01-12 18:30:00,
2013-01-12 13:33:00,58.7,48.2,29.84,West,264,5.0,15.0,68,0.00,,---,0.00,VWS V14.00,2013-01-12 18:33:00,
2013-01-12 13:34:00,58.7,48.2,29.85,West,275,10.0,15.0,68,0.00,,---,0.00,VWS V14.00,2013-01-12 18:34:00,
2013-01-12 13:35:00,58.7,48.2,29.85,West,273,10.0,15.0,68,0.00,,---,0.00,VWS V14.00,2013-01-12 18:35:00,
2013-01-12 13:38:00,58.7,48.2,29.85,West,260,9.0,17.0,68,0.00,,---,0.00,VWS V14.00,2013-01-12 18:38:00,
2013-01-12 13:40:00,58.7,48.2,29.85,West,273,11.0,17.0,68,0.00,,---,0.00,VWS V14.00,2013-01-12 18:40:00,
2013-01-12 13:41:00,58.6,48.1,29.85,West,277,7.0,17.0,68,0.00,,---,0.00,VWS V14.00,2013-01-12 18:41:00,
2013-01-12 13:42:00,58.7,48.2,29.85,West,263,6.0,17.0,68,0.00,,---,0.00,VWS V14.00,2013-01-12 18:42:00,
2013-01-12 13:45:00,58.8,47.9,29.85,West,271,7.0,17.0,67,0.00,,---,0.00,VWS V14.00,2013-01-12 18:45:00,
2013-01-12 13:46:00,58.8,47.9,29.85,West,268,6.0,17.0,67,0.00,,---,0.00,VWS V14.00,2013-01-12 18:46:00,
2013-01-12 13:47:00,58.8,48.3,29.85,West,271,5.0,17.0,68,0.00,,---,0.00,VWS V14.00,2013-01-12 18:47:00,
2013-01-12 13:50:00,58.8,48.3,29.85,West,262,5.0,17.0,68,0.00,,---,0.00,VWS V14.00,2013-01-12 18:50:00,
2013-01-12 13:52:00,58.8,48.3,29.85,SW,217,6.0,17.0,68,0.00,,---,0.00,VWS V14.00,2013-01-12 18:52:00,
2013-01-12 13:53:00,58.8,47.9,29.85,WSW,244,5.0,17.0,67,0.00,,---,0.00,VWS V14.00,2013-01-12 18:53:00,
2013-01-12 13:55:00,58.7,47.8,29.85,WNW,282,12.0,17.0,67,0.00,,---,0.00,VWS V14.00,2013-01-12 18:55:00,
2013-01-12 13:57:00,58.8,47.9,29.85,WNW,285,5.0,17.0,67,0.00,,---,0.00,VWS V14.00,2013-01-12 18:57:00,
2013-01-12 13:59:00,58.8,47.9,29.85,West,273,3.0,10.0,67,0.00,,---,0.00,VWS V14.00,2013-01-12 18:59:00,
2013-01-12 14:00:00,58.8,48.3,29.86,West,269,12.0,12.0,68,0.00,,---,0.00,VWS V14.00,2013-01-12 19:00:00,
2013-01-12 14:01:00,58.8,48.3,29.86,West,272,6.0,12.0,68,0.00,,---,0.00,VWS V14.00,2013-01-12 19:01:00,
2013-01-12 14:02:00,58.7,47.8,29.85,WSW,245,8.0,12.0,67,0.00,,---,0.00,VWS V14.00,2013-01-12 19:02:00,
2013-01-12 14:04:00,58.6,48.1,29.85,WSW,251,10.0,12.0,68,0.00,,---,0.00,VWS V14.00,2013-01-12 19:04:00,
2013-01-12 14:07:00,58.5,48.0,29.85,SW,236,6.0,12.0,68,0.00,,---,0.00,VWS V14.00,2013-01-12 19:07:00,
2013-01-12 14:08:00,58.4,47.9,29.85,SW,232,4.0,12.0,68,0.00,,---,0.00,VWS V14.00,2013-01-12 19:08:00,
2013-01-12 14:09:00,58.3,47.8,29.85,WSW,249,1.0,12.0,68,0.00,,---,0.00,VWS V14.00,2013-01-12 19:09:00,
2013-01-12 14:12:00,58.4,47.9,29.85,WSW,248,9.0,12.0,68,0.00,,---,0.00,VWS V14.00,2013-01-12 19:12:00,
2013-01-12 14:13:00,58.4,47.5,29.85,West,263,8.0,12.0,67,0.00,,---,0.00,VWS V14.00,2013-01-12 19:13:00,
2013-01-12 14:14:00,58.4,47.5,29.85,West,278,12.0,13.0,67,0.00,,---,0.00,VWS V14.00,2013-01-12 19:14:00,
2013-01-12 14:15:00,58.5,47.2,29.85,West,268,6.0,13.0,66,0.00,,---,0.00,VWS V14.00,2013-01-12 19:15:00,
2013-01-12 14:18:00,58.6,47.3,29.85,West,269,5.0,13.0,66,0.00,,---,0.00,VWS V14.00,2013-01-12 19:18:00,
2013-01-12 14:19:00,58.6,47.3,29.86,West,267,9.0,13.0,66,0.00,,---,0.00,VWS V14.00,2013-01-12 19:19:00,
2013-01-12 14:21:00,58.7,47.4,29.86,West,268,9.0,13.0,66,0.00,,---,0.00,VWS V14.00,2013-01-12 19:21:00,
2013-01-12 14:24:00,58.6,46.9,29.85,West,275,10.0,13.0,65,0.00,,---,0.00,VWS V14.00,2013-01-12 19:24:00,
2013-01-12 14:25:00,58.6,46.9,29.85,West,273,9.0,13.0,65,0.00,,---,0.00,VWS V14.00,2013-01-12 19:25:00,
2013-01-12 14:28:00,58.5,46.4,29.85,West,280,7.0,7.0,64,0.00,,---,0.00,VWS V14.00,2013-01-12 19:28:00,
2013-01-12 14:30:00,58.5,46.4,29.85,WNW,282,6.0,9.0,64,0.00,,---,0.00,VWS V14.00,2013-01-12 19:30:00,
2013-01-12 14:34:00,58.5,46.4,29.86,West,263,4.0,12.0,64,0.00,,---,0.00,VWS V14.00,2013-01-12 19:34:00,
2013-01-12 14:35:00,58.4,46.3,29.86,West,263,5.0,12.0,64,0.00,,---,0.00,VWS V14.00,2013-01-12 19:35:00,
2013-01-12 14:36:00,58.5,46.4,29.85,West,277,10.0,13.0,64,0.00,,---,0.00,VWS V14.00,2013-01-12 19:36:00,
2013-01-12 14:40:00,58.3,45.3,29.85,West,273,10.0,16.0,62,0.00,,---,0.00,VWS V14.00,2013-01-12 19:40:00,
2013-01-12 14:41:00,58.2,44.8,29.85,West,259,10.0,16.0,61,0.00,,---,0.00,VWS V14.00,2013-01-12 19:41:00,
2013-01-12 14:45:00,58.0,43.3,29.85,WSW,246,9.0,16.0,58,0.00,,---,0.00,VWS V14.00,2013-01-12 19:45:00,
2013-01-12 14:47:00,57.9,42.8,29.85,West,271,9.0,16.0,57,0.00,,---,0.00,VWS V14.00,2013-01-12 19:47:00,
2013-01-12 14:49:00,57.8,42.7,29.85,West,272,9.0,16.0,57,0.00,,---,0.00,VWS V14.00,2013-01-12 19:49:00,
2013-01-12 14:51:00,57.8,43.6,29.86,West,269,5.0,16.0,59,0.00,,---,0.00,VWS V14.00,2013-01-12 19:51:00,
2013-01-12 14:52:00,57.8,43.6,29.86,West,270,12.0,16.0,59,0.00,,---,0.00,VWS V14.00,2013-01-12 19:52:00,
2013-01-12 14:53:00,57.7,43.5,29.86,WNW,296,14.0,18.0,59,0.00,,---,0.00,VWS V14.00,2013-01-12 19:53:00,
2013-01-12 14:54:00,57.6,42.5,29.86,West,281,12.0,18.0,57,0.00,,---,0.00,VWS V14.00,2013-01-12 19:54:00,
2013-01-12 14:57:00,57.5,42.4,29.86,WNW,288,7.0,19.0,57,0.00,,---,0.00,VWS V14.00,2013-01-12 19:57:00,
2013-01-12 14:58:00,57.5,42.4,29.86,WNW,288,1.0,19.0,57,0.00,,---,0.00,VWS V14.00,2013-01-12 19:58:00,
2013-01-12 15:00:00,57.4,42.3,29.86,West,275,10.0,16.0,57,0.00,,---,0.00,VWS V14.00,2013-01-12 20:00:00,
2013-01-12 15:03:00,57.3,42.7,29.87,WSW,245,5.0,16.0,58,0.00,,---,0.00,VWS V14.00,2013-01-12 20:03:00,
2013-01-12 15:04:00,57.3,43.1,29.87,West,265,5.0,16.0,59,0.00,,---,0.00,VWS V14.00,2013-01-12 20:04:00,
2013-01-12 15:05:00,57.3,43.5,29.87,NW,304,5.0,16.0,60,0.00,,---,0.00,VWS V14.00,2013-01-12 20:05:00,
2013-01-12 15:08:00,57.4,44.1,29.87,WNW,302,12.0,16.0,61,0.00,,---,0.00,VWS V14.00,2013-01-12 20:08:00,
2013-01-12 15:09:00,57.4,44.1,29.87,WNW,286,10.0,16.0,61,0.00,,---,0.00,VWS V14.00,2013-01-12 20:09:00,
2013-01-12 15:10:00,57.4,44.1,29.87,WNW,285,6.0,16.0,61,0.00,,---,0.00,VWS V14.00,2013-01-12 20:10:00,
2013-01-12 15:11:00,57.4,44.1,29.87,WNW,284,2.0,16.0,61,0.00,,---,0.00,VWS V14.00,2013-01-12 20:11:00,
2013-01-12 15:14:00,57.4,44.5,29.87,West,269,6.0,16.0,62,0.00,,---,0.00,VWS V14.00,2013-01-12 20:14:00,
2013-01-12 15:16:00,57.4,44.5,29.87,West,280,5.0,16.0,62,0.00,,---,0.00,VWS V14.00,2013-01-12 20:16:00,
2013-01-12 15:18:00,57.4,44.5,29.88,West,263,4.0,16.0,62,0.00,,---,0.00,VWS V14.00,2013-01-12 20:18:00,
2013-01-12 15:21:00,57.4,44.5,29.88,West,268,4.0,16.0,62,0.00,,---,0.00,VWS V14.00,2013-01-12 20:21:00,
2013-01-12 15:22:00,57.4,44.5,29.88,West,269,6.0,16.0,62,0.00,,---,0.00,VWS V14.00,2013-01-12 20:22:00,
2013-01-12 15:23:00,57.3,44.8,29.88,NW,311,9.0,16.0,63,0.00,,---,0.00,VWS V14.00,2013-01-12 20:23:00,
2013-01-12 15:26:00,57.3,44.8,29.88,WNW,296,4.0,16.0,63,0.00,,---,0.00,VWS V14.00,2013-01-12 20:26:00,
2013-01-12 15:27:00,57.3,44.8,29.88,NW,311,6.0,16.0,63,0.00,,---,0.00,VWS V14.00,2013-01-12 20:27:00,
2013-01-12 15:28:00,57.3,44.8,29.88,WNW,294,10.0,10.0,63,0.00,,---,0.00,VWS V14.00,2013-01-12 20:28:00,
2013-01-12 15:29:00,57.3,44.8,29.88,NW,307,6.0,13.0,63,0.00,,---,0.00,VWS V14.00,2013-01-12 20:29:00,
2013-01-12 15:33:00,57.2,44.3,29.87,West,270,4.0,13.0,62,0.00,,---,0.00,VWS V14.00,2013-01-12 20:33:00,
2013-01-12 15:34:00,57.2,44.3,29.87,WNW,298,4.0,13.0,62,0.00,,---,0.00,VWS V14.00,2013-01-12 20:34:00,
2013-01-12 15:35:00,57.1,44.2,29.87,WNW,286,5.0,13.0,62,0.00,,---,0.00,VWS V14.00,2013-01-12 20:35:00,
2013-01-12 15:39:00,57.2,44.3,29.87,West,274,4.0,13.0,62,0.00,,---,0.00,VWS V14.00,2013-01-12 20:39:00,
2013-01-12 15:40:00,57.1,43.8,29.87,WNW,291,4.0,13.0,61,0.00,,---,0.00,VWS V14.00,2013-01-12 20:40:00,
2013-01-12 15:41:00,57.1,43.8,29.88,WNW,303,5.0,13.0,61,0.00,,---,0.00,VWS V14.00,2013-01-12 20:41:00,
2013-01-12 15:44:00,57.1,43.8,29.87,WNW,294,6.0,13.0,61,0.00,,---,0.00,VWS V14.00,2013-01-12 20:44:00,
2013-01-12 15:45:00,57.1,43.8,29.87,WNW,284,5.0,13.0,61,0.00,,---,0.00,VWS V14.00,2013-01-12 20:45:00,
2013-01-12 15:46:00,57.1,43.8,29.87,WNW,283,7.0,13.0,61,0.00,,---,0.00,VWS V14.00,2013-01-12 20:46:00,
2013-01-12 15:47:00,57.0,43.7,29.87,WNW,300,6.0,13.0,61,0.00,,---,0.00,VWS V14.00,2013-01-12 20:47:00,
2013-01-12 15:49:00,57.0,43.7,29.88,WNW,288,2.0,13.0,61,0.00,,---,0.00,VWS V14.00,2013-01-12 20:49:00,
2013-01-12 15:51:00,56.9,43.6,29.88,West,281,3.0,13.0,61,0.00,,---,0.00,VWS V14.00,2013-01-12 20:51:00,
2013-01-12 15:52:00,56.9,43.6,29.88,West,280,2.0,13.0,61,0.00,,---,0.00,VWS V14.00,2013-01-12 20:52:00,
2013-01-12 15:53:00,56.9,43.6,29.88,West,281,4.0,13.0,61,0.00,,---,0.00,VWS V14.00,2013-01-12 20:53:00,
2013-01-12 15:55:00,56.8,43.5,29.87,West,274,6.0,13.0,61,0.00,,---,0.00,VWS V14.00,2013-01-12 20:55:00,
2013-01-12 15:57:00,56.8,43.5,29.87,WNW,299,3.0,13.0,61,0.00,,---,0.00,VWS V14.00,2013-01-12 20:57:00,
2013-01-12 15:59:00,56.7,43.0,29.87,West,275,6.0,8.0,60,0.00,,---,0.00,VWS V14.00,2013-01-12 20:59:00,
2013-01-12 16:01:00,56.6,42.9,29.87,West,277,10.0,10.0,60,0.00,,---,0.00,VWS V14.00,2013-01-12 21:01:00,
2013-01-12 16:05:00,56.5,43.2,29.88,West,269,4.0,10.0,61,0.00,,---,0.00,VWS V14.00,2013-01-12 21:05:00,
2013-01-12 16:07:00,56.4,43.1,29.88,West,269,3.0,10.0,61,0.00,,---,0.00,VWS V14.00,2013-01-12 21:07:00,
2013-01-12 16:08:00,56.4,43.1,29.88,West,269,2.0,10.0,61,0.00,,---,0.00,VWS V14.00,2013-01-12 21:08:00,
2013-01-12 16:10:00,56.4,43.6,29.88,West,271,3.0,10.0,62,0.00,,---,0.00,VWS V14.00,2013-01-12 21:10:00,
2013-01-12 16:12:00,56.4,43.6,29.88,West,271,2.0,10.0,62,0.00,,---,0.00,VWS V14.00,2013-01-12 21:12:00,
2013-01-12 16:13:00,56.4,43.6,29.88,West,271,2.0,10.0,62,0.00,,---,0.00,VWS V14.00,2013-01-12 21:13:00,
2013-01-12 16:15:00,56.4,43.6,29.88,West,273,6.0,10.0,62,0.00,,---,0.00,VWS V14.00,2013-01-12 21:15:00,
2013-01-12 16:16:00,56.4,43.6,29.88,West,273,6.0,10.0,62,0.00,,---,0.00,VWS V14.00,2013-01-12 21:16:00,
2013-01-12 16:17:00,56.3,43.5,29.88,West,273,4.0,10.0,62,0.00,,---,0.00,VWS V14.00,2013-01-12 21:17:00,
2013-01-12 16:18:00,56.3,43.5,29.88,West,273,3.0,10.0,62,0.00,,---,0.00,VWS V14.00,2013-01-12 21:18:00,
2013-01-12 16:21:00,56.3,43.5,29.88,West,273,3.0,10.0,62,0.00,,---,0.00,VWS V14.00,2013-01-12 21:21:00,
2013-01-12 16:23:00,56.2,43.4,29.88,West,273,4.0,10.0,62,0.00,,---,0.00,VWS V14.00,2013-01-12 21:23:00,
2013-01-12 16:24:00,56.2,43.8,29.88,West,273,4.0,10.0,63,0.00,,---,0.00,VWS V14.00,2013-01-12 21:24:00,
2013-01-12 16:26:00,56.1,43.7,29.89,West,273,3.0,10.0,63,0.00,,---,0.00,VWS V14.00,2013-01-12 21:26:00,
2013-01-12 16:27:00,56.1,43.7,29.89,West,273,4.0,10.0,63,0.00,,---,0.00,VWS V14.00,2013-01-12 21:27:00,
2013-01-12 16:28:00,56.1,43.7,29.89,West,274,5.0,10.0,63,0.00,,---,0.00,VWS V14.00,2013-01-12 21:28:00,
2013-01-12 16:29:00,56.1,44.1,29.89,West,274,3.0,5.0,64,0.00,,---,0.00,VWS V14.00,2013-01-12 21:29:00,
2013-01-12 16:32:00,55.9,43.9,29.90,West,275,5.0,8.0,64,0.00,,---,0.00,VWS V14.00,2013-01-12 21:32:00,
2013-01-12 16:33:00,55.9,44.3,29.90,NW,311,10.0,10.0,65,0.00,,---,0.00,VWS V14.00,2013-01-12 21:33:00,
2013-01-12 16:34:00,55.9,44.3,29.90,WNW,298,6.0,10.0,65,0.00,,---,0.00,VWS V14.00,2013-01-12 21:34:00,
2013-01-12 16:37:00,55.7,44.1,29.90,WNW,292,2.0,10.0,65,0.00,,---,0.00,VWS V14.00,2013-01-12 21:37:00,
2013-01-12 16:39:00,55.6,44.4,29.89,WNW,294,3.0,10.0,66,0.00,,---,0.00,VWS V14.00,2013-01-12 21:39:00,
2013-01-12 16:41:00,55.5,44.3,29.89,West,276,6.0,10.0,66,0.00,,---,0.00,VWS V14.00,2013-01-12 21:41:00,
2013-01-12 16:44:00,55.3,44.2,29.89,West,267,4.0,10.0,66,0.00,,---,0.00,VWS V14.00,2013-01-12 21:44:00,
2013-01-12 16:45:00,55.3,44.2,29.89,West,267,4.0,10.0,66,0.00,,---,0.00,VWS V14.00,2013-01-12 21:45:00,
2013-01-12 16:47:00,55.1,44.3,29.89,West,267,1.0,10.0,67,0.00,,---,0.00,VWS V14.00,2013-01-12 21:47:00,
2013-01-12 16:50:00,55.1,44.3,29.90,West,267,2.0,10.0,67,0.00,,---,0.00,VWS V14.00,2013-01-12 21:50:00,
2013-01-12 16:51:00,55.0,44.3,29.90,West,267,3.0,10.0,67,0.00,,---,0.00,VWS V14.00,2013-01-12 21:51:00,
2013-01-12 16:52:00,55.0,44.3,29.90,West,267,3.0,10.0,67,0.00,,---,0.00,VWS V14.00,2013-01-12 21:52:00,
2013-01-12 16:55:00,54.9,44.5,29.90,West,267,1.0,10.0,68,0.00,,---,0.00,VWS V14.00,2013-01-12 21:55:00,
2013-01-12 16:56:00,54.9,44.5,29.90,West,267,2.0,10.0,68,0.00,,---,0.00,VWS V14.00,2013-01-12 21:56:00,
2013-01-12 16:57:00,54.8,44.5,29.90,West,267,3.0,10.0,68,0.00,,---,0.00,VWS V14.00,2013-01-12 21:57:00,
2013-01-12 16:58:00,54.8,44.5,29.90,West,267,3.0,10.0,68,0.00,,---,0.00,VWS V14.00,2013-01-12 21:58:00,
2013-01-12 17:00:00,54.8,44.5,29.89,West,268,5.0,5.0,68,0.00,,---,0.00,VWS V14.00,2013-01-12 22:00:00,
2013-01-12 17:01:00,54.7,44.4,29.89,West,268,3.0,5.0,68,0.00,,---,0.00,VWS V14.00,2013-01-12 22:01:00,
2013-01-12 17:04:00,54.6,44.7,29.90,West,269,2.0,5.0,69,0.00,,---,0.00,VWS V14.00,2013-01-12 22:04:00,
2013-01-12 17:05:00,54.5,44.5,29.90,West,269,4.0,5.0,69,0.00,,---,0.00,VWS V14.00,2013-01-12 22:05:00,
2013-01-12 17:06:00,54.5,44.5,29.90,West,269,3.0,5.0,69,0.00,,---,0.00,VWS V14.00,2013-01-12 22:06:00,
2013-01-12 17:09:00,54.3,44.7,29.90,West,269,3.0,5.0,70,0.00,,---,0.00,VWS V14.00,2013-01-12 22:09:00,
2013-01-12 17:11:00,54.2,44.6,29.90,West,269,3.0,5.0,70,0.00,,---,0.00,VWS V14.00,2013-01-12 22:11:00,
2013-01-12 17:13:00,54.0,44.8,29.90,West,268,4.0,5.0,71,0.00,,---,0.00,VWS V14.00,2013-01-12 22:13:00,
2013-01-12 17:16:00,53.8,45.0,29.90,West,268,4.0,5.0,72,0.00,,---,0.00,VWS V14.00,2013-01-12 22:16:00,
2013-01-12 17:18:00,53.6,44.8,29.90,West,269,5.0,5.0,72,0.00,,---,0.00,VWS V14.00,2013-01-12 22:18:00,
2013-01-12 17:21:00,53.4,45.0,29.89,West,272,2.0,6.0,73,0.00,,---,0.00,VWS V14.00,2013-01-12 22:21:00,
2013-01-12 17:24:00,53.3,44.9,29.89,West,272,2.0,6.0,73,0.00,,---,0.00,VWS V14.00,2013-01-12 22:24:00,
2013-01-12 17:27:00,53.1,45.0,29.88,West,272,1.0,6.0,74,0.00,,---,0.00,VWS V14.00,2013-01-12 22:27:00,
2013-01-12 17:28:00,53.1,45.0,29.88,West,272,1.0,6.0,74,0.00,,---,0.00,VWS V14.00,2013-01-12 22:28:00,
2013-01-12 17:29:00,53.0,45.0,29.88,West,273,6.0,6.0,74,0.00,,---,0.00,VWS V14.00,2013-01-12 22:29:00,
2013-01-12 17:31:00,52.8,44.8,29.88,West,277,2.0,6.0,74,0.00,,---,0.00,VWS V14.00,2013-01-12 22:31:00,
2013-01-12 17:32:00,52.8,44.8,29.88,West,276,3.0,6.0,74,0.00,,---,0.00,VWS V14.00,2013-01-12 22:32:00,
2013-01-12 17:34:00,52.7,45.0,29.88,West,279,3.0,6.0,75,0.00,,---,0.00,VWS V14.00,2013-01-12 22:34:00,
2013-01-12 17:35:00,52.6,44.9,29.88,West,279,3.0,6.0,75,0.00,,---,0.00,VWS V14.00,2013-01-12 22:35:00,
2013-01-12 17:39:00,52.4,44.7,29.88,West,280,3.0,6.0,75,0.00,,---,0.00,VWS V14.00,2013-01-12 22:39:00,
2013-01-12 17:41:00,52.2,44.5,29.88,West,280,2.0,6.0,75,0.00,,---,0.00,VWS V14.00,2013-01-12 22:41:00,
2013-01-12 17:42:00,52.2,44.5,29.88,West,280,2.0,6.0,75,0.00,,---,0.00,VWS V14.00,2013-01-12 22:42:00,
2013-01-12 17:43:00,52.2,44.5,29.88,West,280,2.0,6.0,75,0.00,,---,0.00,VWS V14.00,2013-01-12 22:43:00,
2013-01-12 17:45:00,52.0,44.3,29.88,WNW,288,3.0,7.0,75,0.00,,---,0.00,VWS V14.00,2013-01-12 22:45:00,
2013-01-12 17:47:00,51.9,44.2,29.88,WNW,288,3.0,7.0,75,0.00,,---,0.00,VWS V14.00,2013-01-12 22:47:00,
2013-01-12 17:50:00,51.8,44.1,29.88,WNW,288,1.0,7.0,75,0.00,,---,0.00,VWS V14.00,2013-01-12 22:50:00,
2013-01-12 17:51:00,51.8,44.1,29.88,WNW,288,2.0,7.0,75,0.00,,---,0.00,VWS V14.00,2013-01-12 22:51:00,
2013-01-12 17:53:00,51.7,44.0,29.88,WNW,289,2.0,7.0,75,0.00,,---,0.00,VWS V14.00,2013-01-12 22:53:00,
2013-01-12 17:56:00,51.6,44.0,29.88,WNW,289,2.0,7.0,75,0.00,,---,0.00,VWS V14.00,2013-01-12 22:56:00,
2013-01-12 17:57:00,51.6,44.0,29.88,WNW,289,3.0,7.0,75,0.00,,---,0.00,VWS V14.00,2013-01-12 22:57:00,
2013-01-12 17:58:00,51.5,43.8,29.88,WNW,288,0.0,7.0,75,0.00,,---,0.00,VWS V14.00,2013-01-12 22:58:00,
2013-01-12 18:02:00,51.5,43.8,29.88,WNW,289,1.0,3.0,75,0.00,,---,0.00,VWS V14.00,2013-01-12 23:02:00,
2013-01-12 18:03:00,51.4,43.8,29.88,WNW,289,3.0,3.0,75,0.00,,---,0.00,VWS V14.00,2013-01-12 23:03:00,
2013-01-12 18:06:00,51.4,43.8,29.88,WNW,289,2.0,4.0,75,0.00,,---,0.00,VWS V14.00,2013-01-12 23:06:00,
2013-01-12 18:07:00,51.4,43.8,29.88,WNW,289,2.0,4.0,75,0.00,,---,0.00,VWS V14.00,2013-01-12 23:07:00,
2013-01-12 18:09:00,51.3,43.7,29.88,WNW,289,1.0,4.0,75,0.00,,---,0.00,VWS V14.00,2013-01-12 23:09:00,
2013-01-12 18:10:00,51.3,43.7,29.88,WNW,289,0.0,4.0,75,0.00,,---,0.00,VWS V14.00,2013-01-12 23:10:00,
2013-01-12 18:11:00,51.3,43.7,29.88,WNW,289,0.0,4.0,75,0.00,,---,0.00,VWS V14.00,2013-01-12 23:11:00,
2013-01-12 18:14:00,51.2,43.9,29.88,WNW,289,0.0,4.0,76,0.00,,---,0.00,VWS V14.00,2013-01-12 23:14:00,
2013-01-12 18:16:00,51.2,43.9,29.88,WNW,288,0.0,4.0,76,0.00,,---,0.00,VWS V14.00,2013-01-12 23:16:00,
2013-01-12 18:19:00,51.1,43.8,29.88,WNW,288,0.0,4.0,76,0.00,,---,0.00,VWS V14.00,2013-01-12 23:19:00,
2013-01-12 18:21:00,51.0,43.7,29.88,NW,304,6.0,6.0,76,0.00,,---,0.00,VWS V14.00,2013-01-12 23:21:00,
2013-01-12 18:24:00,50.9,43.6,29.88,NW,304,4.0,6.0,76,0.00,,---,0.00,VWS V14.00,2013-01-12 23:24:00,
2013-01-12 18:27:00,50.8,43.5,29.88,NW,304,3.0,6.0,76,0.00,,---,0.00,VWS V14.00,2013-01-12 23:27:00,
2013-01-12 18:28:00,50.8,43.5,29.88,NW,304,2.0,6.0,76,0.00,,---,0.00,VWS V14.00,2013-01-12 23:28:00,
2013-01-12 18:30:00,50.8,43.5,29.88,NW,304,1.0,2.0,76,0.00,,---,0.00,VWS V14.00,2013-01-12 23:30:00,
2013-01-12 18:32:00,50.7,43.4,29.89,NW,304,2.0,3.0,76,0.00,,---,0.00,VWS V14.00,2013-01-12 23:32:00,
2013-01-12 18:35:00,50.6,43.3,29.89,NW,304,4.0,4.0,76,0.00,,---,0.00,VWS V14.00,2013-01-12 23:35:00,
2013-01-12 18:36:00,50.6,43.3,29.89,NW,304,2.0,4.0,76,0.00,,---,0.00,VWS V14.00,2013-01-12 23:36:00,
2013-01-12 18:38:00,50.6,43.0,29.89,NW,304,4.0,5.0,75,0.00,,---,0.00,VWS V14.00,2013-01-12 23:38:00,
2013-01-12 18:42:00,50.5,42.9,29.90,NW,304,3.0,5.0,75,0.00,,---,0.00,VWS V14.00,2013-01-12 23:42:00,
2013-01-12 18:43:00,50.4,42.8,29.90,NW,304,2.0,5.0,75,0.00,,---,0.00,VWS V14.00,2013-01-12 23:43:00,
2013-01-12 18:47:00,50.4,42.8,29.91,NW,304,3.0,5.0,75,0.00,,---,0.00,VWS V14.00,2013-01-12 23:47:00,
2013-01-12 18:48:00,50.3,42.7,29.91,NW,304,3.0,5.0,75,0.00,,---,0.00,VWS V14.00,2013-01-12 23:48:00,
2013-01-12 18:50:00,50.3,42.3,29.91,West,273,2.0,7.0,74,0.00,,---,0.00,VWS V14.00,2013-01-12 23:50:00,
2013-01-12 18:52:00,50.2,42.2,29.90,WNW,291,1.0,7.0,74,0.00,,---,0.00,VWS V14.00,2013-01-12 23:52:00,
2013-01-12 18:53:00,50.2,42.2,29.90,WNW,292,2.0,7.0,74,0.00,,---,0.00,VWS V14.00,2013-01-12 23:53:00,
2013-01-12 18:54:00,50.2,42.2,29.90,WNW,292,4.0,7.0,74,0.00,,---,0.00,VWS V14.00,2013-01-12 23:54:00,
2013-01-12 18:55:00,50.1,42.2,29.90,WNW,292,1.0,7.0,74,0.00,,---,0.00,VWS V14.00,2013-01-12 23:55:00,
2013-01-12 18:58:00,50.0,41.7,29.90,NW,307,4.0,7.0,73,0.00,,---,0.00,VWS V14.00,2013-01-12 23:58:00,
2013-01-12 19:00:00,49.9,41.6,29.91,NW,306,3.0,4.0,73,0.00,,---,0.00,VWS V14.00,2013-01-13 00:00:00,
2013-01-12 19:03:00,49.8,41.5,29.91,NW,304,2.0,6.0,73,0.00,,---,0.00,VWS V14.00,2013-01-13 00:03:00,
2013-01-12 19:05:00,49.8,41.2,29.91,NNW,330,9.0,9.0,72,0.00,,---,0.00,VWS V14.00,2013-01-13 00:05:00,
2013-01-12 19:07:00,49.7,41.0,29.91,NNW,329,4.0,9.0,72,0.00,,---,0.00,VWS V14.00,2013-01-13 00:07:00,
2013-01-12 19:08:00,49.6,40.6,29.90,NNW,330,5.0,9.0,71,0.00,,---,0.00,VWS V14.00,2013-01-13 00:08:00,
2013-01-12 19:10:00,49.5,40.5,29.90,NW,325,3.0,9.0,71,0.00,,---,0.00,VWS V14.00,2013-01-13 00:10:00,
2013-01-12 19:14:00,49.3,40.3,29.90,NW,325,3.0,9.0,71,0.00,,---,0.00,VWS V14.00,2013-01-13 00:14:00,
2013-01-12 19:15:00,49.3,39.9,29.90,NW,325,4.0,9.0,70,0.00,,---,0.00,VWS V14.00,2013-01-13 00:15:00,
2013-01-12 19:17:00,49.2,39.8,29.89,NW,319,6.0,9.0,70,0.00,,---,0.00,VWS V14.00,2013-01-13 00:17:00,
2013-01-12 19:20:00,49.1,39.4,29.89,NW,319,5.0,9.0,69,0.00,,---,0.00,VWS V14.00,2013-01-13 00:20:00,
2013-01-12 19:21:00,49.0,39.3,29.89,NNW,338,2.0,9.0,69,0.00,,---,0.00,VWS V14.00,2013-01-13 00:21:00,
2013-01-12 19:22:00,49.0,38.9,29.89,NW,318,6.0,9.0,68,0.00,,---,0.00,VWS V14.00,2013-01-13 00:22:00,
2013-01-12 19:23:00,48.9,38.8,29.89,NW,325,4.0,9.0,68,0.00,,---,0.00,VWS V14.00,2013-01-13 00:23:00,
2013-01-12 19:28:00,48.7,38.6,29.89,NW,311,4.0,9.0,68,0.00,,---,0.00,VWS V14.00,2013-01-13 00:28:00,
2013-01-12 19:29:00,48.7,38.6,29.89,NW,312,3.0,4.0,68,0.00,,---,0.00,VWS V14.00,2013-01-13 00:29:00,
2013-01-12 19:31:00,48.7,38.6,29.89,NW,311,4.0,6.0,68,0.00,,---,0.00,VWS V14.00,2013-01-13 00:31:00,
2013-01-12 19:34:00,48.5,38.4,29.89,NW,319,4.0,6.0,68,0.00,,---,0.00,VWS V14.00,2013-01-13 00:34:00,
2013-01-12 19:38:00,48.3,37.9,29.89,NW,317,5.0,8.0,67,0.00,,---,0.00,VWS V14.00,2013-01-13 00:38:00,
2013-01-12 19:39:00,48.3,37.9,29.89,NNW,333,4.0,8.0,67,0.00,,---,0.00,VWS V14.00,2013-01-13 00:39:00,
2013-01-12 19:41:00,48.2,37.8,29.88,NNW,341,3.0,8.0,67,0.00,,---,0.00,VWS V14.00,2013-01-13 00:41:00,
2013-01-12 19:42:00,48.1,37.7,29.88,NNW,341,3.0,8.0,67,0.00,,---,0.00,VWS V14.00,2013-01-13 00:42:00,
2013-01-12 19:43:00,48.1,37.7,29.88,NNW,342,3.0,8.0,67,0.00,,---,0.00,VWS V14.00,2013-01-13 00:43:00,
2013-01-12 19:45:00,48.0,37.6,29.88,NNW,344,6.0,8.0,67,0.00,,---,0.00,VWS V14.00,2013-01-13 00:45:00,
2013-01-12 19:47:00,47.9,37.5,29.88,NNW,331,3.0,10.0,67,0.00,,---,0.00,VWS V14.00,2013-01-13 00:47:00,
2013-01-12 19:48:00,47.9,37.5,29.89,NNW,331,2.0,10.0,67,0.00,,---,0.00,VWS V14.00,2013-01-13 00:48:00,
2013-01-12 19:50:00,47.8,37.4,29.88,NNW,331,4.0,10.0,67,0.00,,---,0.00,VWS V14.00,2013-01-13 00:50:00,
2013-01-12 19:52:00,47.7,37.7,29.88,NNW,331,3.0,10.0,68,0.00,,---,0.00,VWS V14.00,2013-01-13 00:52:00,
2013-01-12 19:54:00,47.7,37.7,29.88,NNW,334,3.0,10.0,68,0.00,,---,0.00,VWS V14.00,2013-01-13 00:54:00,
2013-01-12 19:57:00,47.5,37.5,29.88,NNW,342,3.0,10.0,68,0.00,,---,0.00,VWS V14.00,2013-01-13 00:57:00,
2013-01-12 19:58:00,47.4,37.4,29.88,NNW,342,4.0,10.0,68,0.00,,---,0.00,VWS V14.00,2013-01-13 00:58:00,
2013-01-12 20:00:00,47.3,36.9,29.88,NNW,340,10.0,10.0,67,0.00,,---,0.00,VWS V14.00,2013-01-13 01:00:00,
2013-01-12 20:03:00,47.0,36.6,29.88,North,355,4.0,11.0,67,0.00,,---,0.00,VWS V14.00,2013-01-13 01:03:00,
2013-01-12 20:04:00,46.9,36.5,29.88,North,355,7.0,11.0,67,0.00,,---,0.00,VWS V14.00,2013-01-13 01:04:00,
2013-01-12 20:05:00,46.7,36.0,29.88,NNW,343,4.0,11.0,66,0.00,,---,0.00,VWS V14.00,2013-01-13 01:05:00,
2013-01-12 20:08:00,46.5,36.2,29.88,NNW,338,4.0,11.0,67,0.00,,---,0.00,VWS V14.00,2013-01-13 01:08:00,
2013-01-12 20:09:00,46.5,36.2,29.88,NNW,338,3.0,11.0,67,0.00,,---,0.00,VWS V14.00,2013-01-13 01:09:00,
2013-01-12 20:12:00,46.4,36.0,29.88,North,349,5.0,11.0,67,0.00,,---,0.00,VWS V14.00,2013-01-13 01:12:00,
2013-01-12 20:13:00,46.3,36.0,29.87,North,360,5.0,11.0,67,0.00,,---,0.00,VWS V14.00,2013-01-13 01:13:00,
2013-01-12 20:14:00,46.2,35.9,29.87,North,9,5.0,11.0,67,0.00,,---,0.00,VWS V14.00,2013-01-13 01:14:00,
2013-01-12 20:16:00,46.1,35.8,29.87,North,360,3.0,11.0,67,0.00,,---,0.00,VWS V14.00,2013-01-13 01:16:00,
2013-01-12 20:18:00,46.1,35.8,29.87,NNW,331,3.0,11.0,67,0.00,,---,0.00,VWS V14.00,2013-01-13 01:18:00,
2013-01-12 20:19:00,46.0,35.7,29.87,North,355,2.0,11.0,67,0.00,,---,0.00,VWS V14.00,2013-01-13 01:19:00,
2013-01-12 20:21:00,45.9,35.6,29.87,North,355,3.0,11.0,67,0.00,,---,0.00,VWS V14.00,2013-01-13 01:21:00,
2013-01-12 20:22:00,45.9,35.6,29.87,NNW,332,6.0,11.0,67,0.00,,---,0.00,VWS V14.00,2013-01-13 01:22:00,
2013-01-12 20:23:00,45.9,35.6,29.87,NNW,331,4.0,11.0,67,0.00,,---,0.00,VWS V14.00,2013-01-13 01:23:00,
2013-01-12 20:25:00,45.8,35.8,29.86,NNW,331,4.0,11.0,68,0.00,,---,0.00,VWS V14.00,2013-01-13 01:25:00,
2013-01-12 20:27:00,45.7,35.8,29.87,NNW,344,4.0,11.0,68,0.00,,---,0.00,VWS V14.00,2013-01-13 01:27:00,
2013-01-12 20:28:00,45.7,35.8,29.87,NNW,341,4.0,11.0,68,0.00,,---,0.00,VWS V14.00,2013-01-13 01:28:00,
2013-01-12 20:30:00,45.6,35.7,29.87,NNW,336,7.0,7.0,68,0.00,,---,0.00,VWS V14.00,2013-01-13 01:30:00,
2013-01-12 20:33:00,45.5,35.6,29.87,NNW,333,4.0,7.0,68,0.00,,---,0.00,VWS V14.00,2013-01-13 01:33:00,
2013-01-12 20:36:00,45.5,35.9,29.87,NNW,330,3.0,7.0,69,0.00,,---,0.00,VWS V14.00,2013-01-13 01:36:00,
2013-01-12 20:37:00,45.4,35.8,29.87,NNW,329,3.0,7.0,69,0.00,,---,0.00,VWS V14.00,2013-01-13 01:37:00,
2013-01-12 20:39:00,45.4,35.8,29.86,NNW,331,5.0,7.0,69,0.00,,---,0.00,VWS V14.00,2013-01-13 01:39:00,
2013-01-12 20:41:00,45.3,35.7,29.86,NNW,331,3.0,7.0,69,0.00,,---,0.00,VWS V14.00,2013-01-13 01:41:00,
2013-01-12 20:42:00,45.3,35.7,29.86,NNW,331,2.0,7.0,69,0.00,,---,0.00,VWS V14.00,2013-01-13 01:42:00,
2013-01-12 20:46:00,45.3,36.1,29.86,NNW,331,3.0,7.0,70,0.00,,---,0.00,VWS V14.00,2013-01-13 01:46:00,
2013-01-12 20:48:00,45.3,36.1,29.86,NNW,331,3.0,7.0,70,0.00,,---,0.00,VWS V14.00,2013-01-13 01:48:00,
2013-01-12 20:49:00,45.2,36.0,29.86,NNW,331,2.0,7.0,70,0.00,,---,0.00,VWS V14.00,2013-01-13 01:49:00,
2013-01-12 20:51:00,45.2,36.0,29.86,NNW,331,2.0,7.0,70,0.00,,---,0.00,VWS V14.00,2013-01-13 01:51:00,
2013-01-12 20:54:00,45.2,36.0,29.86,NNW,331,2.0,7.0,70,0.00,,---,0.00,VWS V14.00,2013-01-13 01:54:00,
2013-01-12 20:55:00,45.2,36.0,29.86,NNW,331,2.0,7.0,70,0.00,,---,0.00,VWS V14.00,2013-01-13 01:55:00,
2013-01-12 20:57:00,45.2,36.4,29.86,NNW,331,3.0,7.0,71,0.00,,---,0.00,VWS V14.00,2013-01-13 01:57:00,
2013-01-12 21:00:00,45.2,36.4,29.86,NNW,331,1.0,3.0,71,0.00,,---,0.00,VWS V14.00,2013-01-13 02:00:00,
2013-01-12 21:01:00,45.1,36.3,29.86,NNW,331,3.0,5.0,71,0.00,,---,0.00,VWS V14.00,2013-01-13 02:01:00,
2013-01-12 21:02:00,45.1,36.3,29.86,NNW,331,3.0,5.0,71,0.00,,---,0.00,VWS V14.00,2013-01-13 02:02:00,
2013-01-12 21:06:00,45.0,36.2,29.85,NNW,331,2.0,5.0,71,0.00,,---,0.00,VWS V14.00,2013-01-13 02:06:00,
2013-01-12 21:07:00,45.0,36.2,29.85,NNW,331,3.0,5.0,71,0.00,,---,0.00,VWS V14.00,2013-01-13 02:07:00,
2013-01-12 21:10:00,45.0,36.2,29.85,NNW,331,2.0,5.0,71,0.00,,---,0.00,VWS V14.00,2013-01-13 02:10:00,
2013-01-12 21:11:00,44.9,36.4,29.86,NNW,331,2.0,5.0,72,0.00,,---,0.00,VWS V14.00,2013-01-13 02:11:00,
2013-01-12 21:12:00,44.9,36.1,29.86,NNW,331,2.0,5.0,71,0.00,,---,0.00,VWS V14.00,2013-01-13 02:12:00,
2013-01-12 21:13:00,44.9,36.4,29.86,NNW,331,2.0,5.0,72,0.00,,---,0.00,VWS V14.00,2013-01-13 02:13:00,
2013-01-12 21:15:00,44.8,36.3,29.86,NNW,331,3.0,5.0,72,0.00,,---,0.00,VWS V14.00,2013-01-13 02:15:00,
2013-01-12 21:18:00,44.7,36.2,29.86,NNW,331,2.0,5.0,72,0.00,,---,0.00,VWS V14.00,2013-01-13 02:18:00,
2013-01-12 21:23:00,44.6,36.5,29.86,NNW,331,1.0,5.0,73,0.00,,---,0.00,VWS V14.00,2013-01-13 02:23:00,
2013-01-12 21:24:00,44.6,36.5,29.86,NNW,331,2.0,5.0,73,0.00,,---,0.00,VWS V14.00,2013-01-13 02:24:00,
2013-01-12 21:28:00,44.5,36.4,29.87,NNW,331,2.0,3.0,73,0.00,,---,0.00,VWS V14.00,2013-01-13 02:28:00,
2013-01-12 21:30:00,44.4,36.3,29.86,NNW,331,3.0,3.0,73,0.00,,---,0.00,VWS V14.00,2013-01-13 02:30:00,
2013-01-12 21:34:00,44.3,36.2,29.86,NNW,331,1.0,3.0,73,0.00,,---,0.00,VWS V14.00,2013-01-13 02:34:00,
2013-01-12 21:35:00,44.2,36.5,29.86,NNW,331,2.0,3.0,74,0.00,,---,0.00,VWS V14.00,2013-01-13 02:35:00,
2013-01-12 21:36:00,44.2,36.5,29.86,NNW,331,3.0,3.0,74,0.00,,---,0.00,VWS V14.00,2013-01-13 02:36:00,
2013-01-12 21:41:00,44.1,36.7,29.86,NNW,331,2.0,3.0,75,0.00,,---,0.00,VWS V14.00,2013-01-13 02:41:00,
2013-01-12 21:42:00,44.1,36.7,29.86,NNW,331,1.0,3.0,75,0.00,,---,0.00,VWS V14.00,2013-01-13 02:42:00,
2013-01-12 21:45:00,44.0,36.6,29.86,NNW,331,3.0,3.0,75,0.00,,---,0.00,VWS V14.00,2013-01-13 02:45:00,
2013-01-12 21:46:00,43.9,36.5,29.86,NNW,331,2.0,3.0,75,0.01,,---,0.01,VWS V14.00,2013-01-13 02:46:00,
2013-01-12 21:47:00,43.8,36.7,29.86,NNW,331,2.0,3.0,76,0.01,,---,0.01,VWS V14.00,2013-01-13 02:47:00,
2013-01-12 21:48:00,43.8,36.7,29.86,NNW,331,2.0,3.0,76,0.01,,---,0.01,VWS V14.00,2013-01-13 02:48:00,
2013-01-12 21:50:00,43.7,37.0,29.86,NNW,331,2.0,3.0,77,0.01,,---,0.01,VWS V14.00,2013-01-13 02:50:00,
2013-01-12 21:52:00,43.6,36.9,29.86,NNW,331,2.0,3.0,77,0.01,,---,0.01,VWS V14.00,2013-01-13 02:52:00,
2013-01-12 21:53:00,43.5,37.1,29.86,NNW,331,3.0,3.0,78,0.01,,---,0.01,VWS V14.00,2013-01-13 02:53:00,
2013-01-12 21:54:00,43.5,37.1,29.86,NNW,331,1.0,3.0,78,0.01,,---,0.01,VWS V14.00,2013-01-13 02:54:00,
2013-01-12 21:57:00,43.3,37.2,29.86,NNW,331,2.0,3.0,79,0.01,,---,0.01,VWS V14.00,2013-01-13 02:57:00,
2013-01-12 21:58:00,43.3,37.2,29.86,NNW,331,2.0,3.0,79,0.01,,---,0.01,VWS V14.00,2013-01-13 02:58:00,
2013-01-12 21:59:00,43.2,37.1,29.85,NNW,331,2.0,3.0,79,0.02,,---,0.02,VWS V14.00,2013-01-13 02:59:00,
2013-01-12 22:00:00,43.2,37.5,29.85,NNW,331,2.0,3.0,80,0.02,,---,0.02,VWS V14.00,2013-01-13 03:00:00,
2013-01-12 22:02:00,43.1,37.4,29.85,NNW,331,1.0,3.0,80,0.02,,---,0.02,VWS V14.00,2013-01-13 03:02:00,
2013-01-12 22:04:00,43.0,37.3,29.85,NNW,331,2.0,3.0,80,0.02,,---,0.02,VWS V14.00,2013-01-13 03:04:00,
2013-01-12 22:05:00,43.0,37.6,29.85,NNW,331,2.0,3.0,81,0.02,,---,0.02,VWS V14.00,2013-01-13 03:05:00,
2013-01-12 22:07:00,42.8,37.4,29.85,NNW,331,2.0,3.0,81,0.02,,---,0.02,VWS V14.00,2013-01-13 03:07:00,
2013-01-12 22:10:00,42.7,37.3,29.85,NNW,331,3.0,3.0,81,0.02,,---,0.02,VWS V14.00,2013-01-13 03:10:00,
2013-01-12 22:11:00,42.7,37.6,29.84,NNW,331,3.0,4.0,82,0.03,,---,0.03,VWS V14.00,2013-01-13 03:11:00,
2013-01-12 22:12:00,42.7,37.6,29.84,NNW,331,4.0,5.0,82,0.03,,---,0.03,VWS V14.00,2013-01-13 03:12:00,
2013-01-12 22:16:00,42.5,37.7,29.84,NNW,331,3.0,5.0,83,0.03,,---,0.03,VWS V14.00,2013-01-13 03:16:00,
2013-01-12 22:17:00,42.5,38.0,29.84,NNW,331,3.0,5.0,84,0.03,,---,0.03,VWS V14.00,2013-01-13 03:17:00,
2013-01-12 22:18:00,42.4,37.9,29.84,NNW,331,5.0,5.0,84,0.03,,---,0.03,VWS V14.00,2013-01-13 03:18:00,
2013-01-12 22:19:00,42.4,37.9,29.84,NNW,333,5.0,6.0,84,0.04,,---,0.04,VWS V14.00,2013-01-13 03:19:00,
2013-01-12 22:22:00,42.2,38.0,29.84,NNW,334,3.0,6.0,85,0.04,,---,0.04,VWS V14.00,2013-01-13 03:22:00,
2013-01-12 22:23:00,42.2,38.0,29.83,NNW,335,0.0,6.0,85,0.04,,---,0.04,VWS V14.00,2013-01-13 03:23:00,
2013-01-12 22:24:00,42.2,38.0,29.83,NNW,339,2.0,6.0,85,0.04,,---,0.04,VWS V14.00,2013-01-13 03:24:00,
2013-01-12 22:25:00,42.2,38.0,29.83,NNW,338,6.0,6.0,85,0.04,,---,0.04,VWS V14.00,2013-01-13 03:25:00,
2013-01-12 22:28:00,42.3,38.4,29.83,NNW,348,4.0,6.0,86,0.04,,---,0.04,VWS V14.00,2013-01-13 03:28:00,
2013-01-12 22:30:00,42.6,39.0,29.83,NNE,33,3.0,6.0,87,0.05,,---,0.05,VWS V14.00,2013-01-13 03:30:00,
2013-01-12 22:33:00,42.7,39.4,29.83,NNE,28,7.0,7.0,88,0.05,,---,0.05,VWS V14.00,2013-01-13 03:33:00,
2013-01-12 22:35:00,42.6,39.3,29.83,NNE,26,2.0,7.0,88,0.06,,---,0.06,VWS V14.00,2013-01-13 03:35:00,
2013-01-12 22:36:00,42.6,39.3,29.82,NE,36,6.0,7.0,88,0.06,,---,0.06,VWS V14.00,2013-01-13 03:36:00,
2013-01-12 22:38:00,42.5,39.2,29.82,NNE,21,3.0,7.0,88,0.06,,---,0.06,VWS V14.00,2013-01-13 03:38:00,
2013-01-12 22:40:00,42.3,39.0,29.82,NNE,21,4.0,7.0,88,0.06,,---,0.06,VWS V14.00,2013-01-13 03:40:00,
2013-01-12 22:41:00,42.3,39.0,29.82,North,10,3.0,7.0,88,0.07,,---,0.07,VWS V14.00,2013-01-13 03:41:00,
2013-01-12 22:43:00,42.3,39.0,29.82,NNE,24,3.0,7.0,88,0.07,,---,0.07,VWS V14.00,2013-01-13 03:43:00,
2013-01-12 22:45:00,42.2,38.9,29.82,NNE,24,1.0,7.0,88,0.07,,---,0.07,VWS V14.00,2013-01-13 03:45:00,
2013-01-12 22:46:00,42.2,38.9,29.82,NNE,24,0.0,7.0,88,0.08,,---,0.08,VWS V14.00,2013-01-13 03:46:00,
2013-01-12 22:47:00,42.2,38.9,29.82,NNE,24,2.0,7.0,88,0.08,,---,0.08,VWS V14.00,2013-01-13 03:47:00,
2013-01-12 22:48:00,42.1,38.8,29.83,NNE,15,1.0,7.0,88,0.08,,---,0.08,VWS V14.00,2013-01-13 03:48:00,
2013-01-12 22:50:00,42.0,38.7,29.83,NNE,15,1.0,7.0,88,0.08,,---,0.08,VWS V14.00,2013-01-13 03:50:00,
2013-01-12 22:51:00,41.9,38.6,29.83,NNE,15,0.0,7.0,88,0.08,,---,0.08,VWS V14.00,2013-01-13 03:51:00,
2013-01-12 22:53:00,41.9,38.9,29.83,NNE,14,2.0,7.0,89,0.09,,---,0.09,VWS V14.00,2013-01-13 03:53:00,
2013-01-12 22:54:00,41.9,38.9,29.83,NNE,12,4.0,7.0,89,0.09,,---,0.09,VWS V14.00,2013-01-13 03:54:00,
2013-01-12 22:55:00,41.8,38.8,29.83,North,5,4.0,7.0,89,0.09,,---,0.09,VWS V14.00,2013-01-13 03:55:00,
2013-01-12 22:57:00,41.7,38.7,29.83,North,360,2.0,7.0,89,0.09,,---,0.09,VWS V14.00,2013-01-13 03:57:00,
2013-01-12 22:59:00,41.6,38.6,29.82,North,5,1.0,1.0,89,0.08,,---,0.09,VWS V14.00,2013-01-13 03:59:00,
2013-01-12 23:01:00,41.6,38.6,29.83,NNE,26,3.0,7.0,89,0.09,,---,0.10,VWS V14.00,2013-01-13 04:01:00,
2013-01-12 23:02:00,41.6,38.6,29.83,NNE,27,1.0,7.0,89,0.09,,---,0.10,VWS V14.00,2013-01-13 04:02:00,
2013-01-12 23:03:00,41.6,38.6,29.83,NNE,27,1.0,7.0,89,0.09,,---,0.10,VWS V14.00,2013-01-13 04:03:00,
2013-01-12 23:04:00,41.5,38.5,29.83,NNE,22,3.0,7.0,89,0.09,,---,0.10,VWS V14.00,2013-01-13 04:04:00,
2013-01-12 23:06:00,41.4,38.4,29.83,NNE,21,3.0,7.0,89,0.09,,---,0.10,VWS V14.00,2013-01-13 04:06:00,
2013-01-12 23:07:00,41.3,38.3,29.83,NNE,17,5.0,7.0,89,0.09,,---,0.10,VWS V14.00,2013-01-13 04:07:00,
2013-01-12 23:08:00,41.2,38.2,29.83,NNE,15,3.0,7.0,89,0.09,,---,0.10,VWS V14.00,2013-01-13 04:08:00,
2013-01-12 23:11:00,41.1,38.1,29.84,NNE,13,3.0,7.0,89,0.09,,---,0.10,VWS V14.00,2013-01-13 04:11:00,
2013-01-12 23:14:00,41.0,38.0,29.84,North,360,3.0,7.0,89,0.10,,---,0.11,VWS V14.00,2013-01-13 04:14:00,
2013-01-12 23:19:00,40.7,37.7,29.84,North,355,6.0,8.0,89,0.11,,---,0.12,VWS V14.00,2013-01-13 04:19:00,
2013-01-12 23:20:00,40.7,37.7,29.84,North,5,6.0,10.0,89,0.11,,---,0.12,VWS V14.00,2013-01-13 04:20:00,
2013-01-12 23:21:00,40.6,37.6,29.84,NNW,348,5.0,10.0,89,0.11,,---,0.12,VWS V14.00,2013-01-13 04:21:00,
2013-01-12 23:24:00,40.6,37.9,29.84,North,355,4.0,10.0,90,0.12,,---,0.13,VWS V14.00,2013-01-13 04:24:00,
2013-01-12 23:25:00,40.6,37.9,29.85,North,355,5.0,10.0,90,0.12,,---,0.13,VWS V14.00,2013-01-13 04:25:00,
2013-01-12 23:27:00,40.6,37.9,29.85,North,360,3.0,10.0,90,0.13,,---,0.14,VWS V14.00,2013-01-13 04:27:00,
2013-01-12 23:29:00,40.5,37.8,29.84,North,355,3.0,6.0,90,0.11,,---,0.15,VWS V14.00,2013-01-13 04:29:00,
2013-01-12 23:30:00,40.4,37.7,29.84,North,360,6.0,10.0,90,0.11,,---,0.15,VWS V14.00,2013-01-13 04:30:00,
2013-01-12 23:31:00,40.4,37.7,29.84,North,360,6.0,10.0,90,0.11,,---,0.15,VWS V14.00,2013-01-13 04:31:00,
2013-01-12 23:34:00,40.4,37.7,29.84,North,9,7.0,10.0,90,0.12,,---,0.16,VWS V14.00,2013-01-13 04:34:00,
2013-01-12 23:36:00,40.5,37.8,29.84,North,5,3.0,10.0,90,0.13,,---,0.17,VWS V14.00,2013-01-13 04:36:00,
2013-01-12 23:37:00,40.5,37.8,29.84,NNE,15,6.0,10.0,90,0.13,,---,0.17,VWS V14.00,2013-01-13 04:37:00,
2013-01-12 23:38:00,40.5,37.8,29.84,NNE,12,6.0,14.0,90,0.13,,---,0.17,VWS V14.00,2013-01-13 04:38:00,
2013-01-12 23:42:00,40.6,38.2,29.83,North,10,6.0,14.0,91,0.14,,---,0.18,VWS V14.00,2013-01-13 04:42:00,
2013-01-12 23:43:00,40.6,38.2,29.83,NNE,17,5.0,14.0,91,0.14,,---,0.18,VWS V14.00,2013-01-13 04:43:00,
2013-01-12 23:47:00,40.7,38.3,29.83,NNE,30,10.0,14.0,91,0.15,,---,0.19,VWS V14.00,2013-01-13 04:47:00,
2013-01-12 23:49:00,40.8,38.4,29.83,NNE,16,5.0,14.0,91,0.15,,---,0.19,VWS V14.00,2013-01-13 04:49:00,
2013-01-12 23:50:00,40.8,38.4,29.83,NNE,32,8.0,14.0,91,0.15,,---,0.19,VWS V14.00,2013-01-13 04:50:00,
2013-01-12 23:52:00,40.8,38.4,29.83,North,5,6.0,14.0,91,0.16,,---,0.20,VWS V14.00,2013-01-13 04:52:00,
2013-01-12 23:53:00,40.6,38.2,29.83,North,360,4.0,14.0,91,0.16,,---,0.20,VWS V14.00,2013-01-13 04:53:00,
2013-01-12 23:54:00,40.6,38.2,29.83,NE,36,10.0,14.0,91,0.16,,---,0.20,VWS V14.00,2013-01-13 04:54:00,
2013-01-12 23:56:00,40.6,38.5,29.83,NNE,22,3.0,14.0,92,0.16,,---,0.20,VWS V14.00,2013-01-13 04:56:00,
2013-01-12 23:57:00,40.6,38.5,29.83,NE,39,6.0,14.0,92,0.16,,---,0.20,VWS V14.00,2013-01-13 04:57:00,
2013-01-12 23:59:00,40.5,38.4,29.83,NNE,14,8.0,14.0,92,0.11,,---,0.00,VWS V14.00,2013-01-13 04:59:00,